Wetterdaten: Sonntag, 03.04.2016
Datum Zeit Temp. Aussen Temp. o. S. +5cm Feuchte Auss BlattFeu 1 Luftdruck Regen Sonnenschein Regendauer Solar Windben Empfang
03.04.2016 00:00 13,7 C 13,9 C 11,7 C 78 % 0 lf 1011,8 hPa 0,0 l/m 0 min 0 min 0 W/m 12,6 km/h (3 Bft) 95,74 %
03.04.2016 00:02 13,7 C 13,9 C 11,7 C 78 % 0 lf 1011,8 hPa 0,0 l/m 0 min 0 min 0 W/m 12,6 km/h (3 Bft) 87,18 %
03.04.2016 00:06 13,6 C 13,9 C 11,7 C 78 % 0 lf 1011,9 hPa 0,0 l/m 0 min 0 min 0 W/m 16,7 km/h (3 Bft) 94,68 %
03.04.2016 00:08 13,6 C 13,9 C 12,2 C 79 % 0 lf 1011,8 hPa 0,0 l/m 0 min 0 min 0 W/m 14,6 km/h (3 Bft) 95,65 %
03.04.2016 00:10 13,6 C 13,9 C 12,2 C 79 % 0 lf 1011,9 hPa 0,0 l/m 0 min 0 min 0 W/m 14,6 km/h (3 Bft) 95,74 %
03.04.2016 00:12 13,6 C 13,9 C 12,2 C 79 % 0 lf 1011,8 hPa 0,0 l/m 0 min 0 min 0 W/m 16,7 km/h (3 Bft) 95,74 %
03.04.2016 00:14 13,6 C 13,9 C 11,7 C 79 % 0 lf 1011,8 hPa 0,0 l/m 0 min 0 min 0 W/m 12,6 km/h (3 Bft) 97,87 %
03.04.2016 00:16 13,6 C 13,9 C 12,2 C 79 % 0 lf 1011,8 hPa 0,0 l/m 0 min 2 min 0 W/m 12,6 km/h (3 Bft) 95,74 %
03.04.2016 00:18 13,6 C 13,9 C 12,2 C 79 % 0 lf 1011,8 hPa 0,0 l/m 0 min 2 min 0 W/m 14,6 km/h (3 Bft) 95,74 %
03.04.2016 00:20 13,6 C 13,9 C 12,2 C 79 % 0 lf 1011,9 hPa 0,0 l/m 0 min 2 min 0 W/m 12,6 km/h (3 Bft) 97,83 %
03.04.2016 00:22 13,6 C 13,9 C 11,7 C 79 % 0 lf 1011,9 hPa 0,0 l/m 0 min 2 min 0 W/m 18,8 km/h (3 Bft) 97,87 %
03.04.2016 00:24 13,6 C 13,3 C 11,7 C 79 % 0 lf 1011,9 hPa 0,0 l/m 0 min 2 min 0 W/m 12,6 km/h (3 Bft) 97,87 %
03.04.2016 00:26 13,6 C 13,3 C 11,7 C 79 % 0 lf 1011,9 hPa 0,0 l/m 0 min 2 min 0 W/m 8,4 km/h (2 Bft) 97,87 %
03.04.2016 00:28 13,6 C 13,3 C 11,7 C 79 % 0 lf 1011,9 hPa 0,0 l/m 0 min 0 min 0 W/m 14,6 km/h (3 Bft) 97,87 %
03.04.2016 00:30 13,5 C 13,3 C 11,1 C 79 % 0 lf 1011,9 hPa 0,0 l/m 0 min 2 min 0 W/m 10,5 km/h (2 Bft) 97,87 %
03.04.2016 00:32 13,5 C 13,3 C 11,1 C 79 % 0 lf 1011,7 hPa 0,0 l/m 0 min 0 min 0 W/m 12,6 km/h (3 Bft) 100,00 %
03.04.2016 00:34 13,5 C 13,3 C 11,7 C 79 % 0 lf 1011,7 hPa 0,0 l/m 0 min 2 min 0 W/m 12,6 km/h (3 Bft) 97,87 %
03.04.2016 00:36 13,5 C 13,3 C 11,7 C 79 % 0 lf 1011,7 hPa 0,0 l/m 0 min 2 min 0 W/m 10,5 km/h (2 Bft) 97,87 %
03.04.2016 00:38 13,5 C 13,3 C 11,7 C 79 % 0 lf 1011,6 hPa 0,0 l/m 0 min 0 min 0 W/m 10,5 km/h (2 Bft) 100,00 %
03.04.2016 00:40 13,5 C 13,3 C 11,7 C 79 % 0 lf 1011,6 hPa 0,0 l/m 0 min 0 min 0 W/m 10,5 km/h (2 Bft) 100,00 %
03.04.2016 00:42 13,4 C 13,3 C 11,7 C 79 % 0 lf 1011,7 hPa 0,0 l/m 0 min 2 min 0 W/m 16,7 km/h (3 Bft) 100,00 %
03.04.2016 00:44 13,4 C 13,3 C 11,7 C 80 % 0 lf 1011,6 hPa 0,0 l/m 0 min 0 min 0 W/m 8,4 km/h (2 Bft) 100,00 %
03.04.2016 00:46 13,4 C 13,3 C 11,7 C 80 % 0 lf 1011,6 hPa 0,0 l/m 0 min 0 min 0 W/m 8,4 km/h (2 Bft) 100,00 %
03.04.2016 00:48 13,4 C 13,3 C 11,7 C 80 % 0 lf 1011,5 hPa 0,0 l/m 0 min 0 min 0 W/m 10,5 km/h (2 Bft) 100,00 %
03.04.2016 00:50 13,4 C 13,3 C 11,7 C 80 % 0 lf 1011,6 hPa 0,0 l/m 0 min 0 min 0 W/m 12,6 km/h (3 Bft) 97,87 %
03.04.2016 00:52 13,4 C 13,3 C 11,7 C 80 % 0 lf 1011,6 hPa 0,0 l/m 0 min 0 min 0 W/m 10,5 km/h (2 Bft) 91,49 %
03.04.2016 00:54 13,4 C 13,3 C 11,7 C 80 % 0 lf 1011,6 hPa 0,0 l/m 0 min 2 min 0 W/m 10,5 km/h (2 Bft) 97,87 %
03.04.2016 00:56 13,3 C 13,3 C 11,7 C 80 % 0 lf 1011,5 hPa 0,0 l/m 0 min 0 min 0 W/m 10,5 km/h (2 Bft) 95,65 %
03.04.2016 00:58 13,3 C 12,8 C 11,1 C 80 % 0 lf 1011,5 hPa 0,0 l/m 0 min 0 min 0 W/m 12,6 km/h (3 Bft) 97,87 %
03.04.2016 01:00 13,3 C 12,8 C 11,1 C 80 % 0 lf 1011,5 hPa 0,0 l/m 0 min 0 min 0 W/m 10,5 km/h (2 Bft) 95,74 %
03.04.2016 01:02 13,3 C 12,8 C 11,1 C 80 % 0 lf 1011,5 hPa 0,0 l/m 0 min 0 min 0 W/m 12,6 km/h (3 Bft) 97,87 %
03.04.2016 01:04 13,3 C 12,8 C 11,1 C 80 % 0 lf 1011,5 hPa 0,0 l/m 0 min 0 min 0 W/m 10,5 km/h (2 Bft) 95,74 %
03.04.2016 01:06 13,3 C 12,8 C 11,1 C 80 % 0 lf 1011,5 hPa 0,0 l/m 0 min 0 min 0 W/m 8,4 km/h (2 Bft) 97,87 %
03.04.2016 01:08 13,2 C 12,8 C 11,1 C 81 % 0 lf 1011,5 hPa 0,0 l/m 0 min 0 min 0 W/m 14,6 km/h (3 Bft) 91,30 %
03.04.2016 01:10 13,2 C 13,3 C 11,1 C 81 % 0 lf 1011,6 hPa 0,0 l/m 0 min 0 min 0 W/m 10,5 km/h (2 Bft) 95,74 %
03.04.2016 01:12 13,2 C 13,3 C 11,7 C 81 % 0 lf 1011,6 hPa 0,0 l/m 0 min 0 min 0 W/m 10,5 km/h (2 Bft) 97,87 %
03.04.2016 01:14 13,2 C 13,3 C 11,7 C 81 % 0 lf 1011,6 hPa 0,0 l/m 0 min 2 min 0 W/m 12,6 km/h (3 Bft) 95,74 %
03.04.2016 01:16 13,2 C 13,3 C 11,7 C 81 % 0 lf 1011,6 hPa 0,0 l/m 0 min 0 min 0 W/m 10,5 km/h (2 Bft) 95,74 %
03.04.2016 01:18 13,2 C 13,3 C 11,1 C 81 % 0 lf 1011,6 hPa 0,0 l/m 0 min 2 min 0 W/m 8,4 km/h (2 Bft) 97,83 %
03.04.2016 01:20 13,2 C 12,8 C 11,1 C 81 % 2 lf 1011,6 hPa 0,0 l/m 0 min 2 min 0 W/m 8,4 km/h (2 Bft) 97,87 %
03.04.2016 01:22 13,2 C 12,8 C 11,1 C 81 % 0 lf 1011,7 hPa 0,0 l/m 0 min 2 min 0 W/m 12,6 km/h (3 Bft) 93,62 %
03.04.2016 01:24 13,2 C 12,8 C 11,1 C 81 % 0 lf 1011,7 hPa 0,0 l/m 0 min 2 min 0 W/m 18,8 km/h (3 Bft) 95,74 %
03.04.2016 01:26 13,2 C 12,8 C 11,1 C 81 % 0 lf 1011,6 hPa 0,0 l/m 0 min 2 min 0 W/m 14,6 km/h (3 Bft) 93,62 %
03.04.2016 01:28 13,1 C 12,2 C 10,6 C 82 % 1 lf 1011,6 hPa 0,0 l/m 0 min 2 min 0 W/m 10,5 km/h (2 Bft) 95,74 %
03.04.2016 01:30 13,1 C 12,8 C 10,6 C 82 % 1 lf 1011,6 hPa 0,0 l/m 0 min 2 min 0 W/m 10,5 km/h (2 Bft) 97,83 %
03.04.2016 01:32 13,1 C 12,8 C 10,6 C 82 % 2 lf 1011,6 hPa 0,0 l/m 0 min 2 min 0 W/m 10,5 km/h (2 Bft) 95,74 %
03.04.2016 01:34 13,1 C 12,8 C 10,6 C 82 % 3 lf 1011,5 hPa 0,0 l/m 0 min 2 min 0 W/m 10,5 km/h (2 Bft) 95,74 %
03.04.2016 01:36 13,1 C 12,2 C 10,6 C 82 % 12 lf 1011,4 hPa 0,0 l/m 0 min 2 min 0 W/m 16,7 km/h (3 Bft) 95,74 %
03.04.2016 01:38 13,1 C 12,2 C 10,0 C 82 % 10 lf 1011,4 hPa 0,0 l/m 0 min 2 min 0 W/m 10,5 km/h (2 Bft) 97,87 %
03.04.2016 01:40 13,1 C 12,2 C 10,0 C 82 % 6 lf 1011,4 hPa 0,0 l/m 0 min 2 min 0 W/m 10,5 km/h (2 Bft) 97,87 %
03.04.2016 01:42 13,0 C 12,2 C 10,0 C 82 % 3 lf 1011,4 hPa 0,0 l/m 0 min 2 min 0 W/m 10,5 km/h (2 Bft) 100,00 %
03.04.2016 01:44 13,0 C 12,2 C 10,0 C 82 % 1 lf 1011,4 hPa 0,0 l/m 0 min 2 min 0 W/m 8,4 km/h (2 Bft) 95,74 %
03.04.2016 01:46 13,0 C 12,2 C 10,0 C 83 % 1 lf 1011,4 hPa 0,0 l/m 0 min 2 min 0 W/m 12,6 km/h (3 Bft) 97,87 %
03.04.2016 01:48 13,0 C 12,2 C 10,0 C 83 % 0 lf 1011,4 hPa 0,0 l/m 0 min 2 min 0 W/m 8,4 km/h (2 Bft) 100,00 %
03.04.2016 01:50 13,0 C 12,2 C 10,0 C 83 % 2 lf 1011,4 hPa 0,0 l/m 0 min 2 min 0 W/m 10,5 km/h (2 Bft) 100,00 %
03.04.2016 01:52 12,9 C 12,2 C 10,0 C 83 % 1 lf 1011,5 hPa 0,0 l/m 0 min 2 min 0 W/m 12,6 km/h (3 Bft) 100,00 %
03.04.2016 01:54 12,9 C 12,2 C 10,0 C 83 % 1 lf 1011,5 hPa 0,0 l/m 0 min 2 min 0 W/m 10,5 km/h (2 Bft) 97,83 %
03.04.2016 01:56 12,9 C 12,2 C 10,0 C 83 % 0 lf 1011,4 hPa 0,0 l/m 0 min 0 min 0 W/m 8,4 km/h (2 Bft) 97,87 %
03.04.2016 01:58 12,9 C 12,2 C 10,0 C 83 % 1 lf 1011,3 hPa 0,0 l/m 0 min 0 min 0 W/m 6,3 km/h (2 Bft) 100,00 %
03.04.2016 02:00 12,9 C 12,2 C 10,0 C 83 % 0 lf 1011,3 hPa 0,0 l/m 0 min 2 min 0 W/m 8,4 km/h (2 Bft) 95,74 %
03.04.2016 02:02 12,9 C 12,2 C 10,0 C 83 % 0 lf 1011,3 hPa 0,0 l/m 0 min 2 min 0 W/m 8,4 km/h (2 Bft) 97,87 %
03.04.2016 02:04 12,9 C 12,2 C 10,0 C 84 % 0 lf 1011,3 hPa 0,0 l/m 0 min 0 min 0 W/m 6,3 km/h (2 Bft) 95,74 %
03.04.2016 02:06 12,8 C 12,2 C 10,0 C 84 % 1 lf 1011,3 hPa 0,0 l/m 0 min 2 min 0 W/m 8,4 km/h (2 Bft) 97,83 %
03.04.2016 02:08 12,8 C 12,2 C 10,0 C 84 % 0 lf 1011,2 hPa 0,0 l/m 0 min 2 min 0 W/m 8,4 km/h (2 Bft) 95,74 %
03.04.2016 02:10 12,8 C 12,2 C 10,0 C 84 % 0 lf 1011,2 hPa 0,0 l/m 0 min 0 min 0 W/m 6,3 km/h (2 Bft) 95,74 %
03.04.2016 02:12 12,8 C 12,2 C 10,0 C 84 % 0 lf 1011,3 hPa 0,0 l/m 0 min 2 min 0 W/m 6,3 km/h (2 Bft) 93,62 %
03.04.2016 02:14 12,8 C 12,2 C 10,0 C 84 % 0 lf 1011,3 hPa 0,0 l/m 0 min 0 min 0 W/m 8,4 km/h (2 Bft) 93,62 %
03.04.2016 02:16 12,7 C 12,2 C 10,0 C 84 % 0 lf 1011,3 hPa 0,0 l/m 0 min 0 min 0 W/m 8,4 km/h (2 Bft) 93,62 %
03.04.2016 02:18 12,7 C 12,2 C 10,6 C 84 % 0 lf 1011,3 hPa 0,0 l/m 0 min 0 min 0 W/m 10,5 km/h (2 Bft) 95,65 %
03.04.2016 02:20 12,7 C 12,2 C 10,6 C 84 % 0 lf 1011,3 hPa 0,0 l/m 0 min 0 min 0 W/m 10,5 km/h (2 Bft) 93,62 %
03.04.2016 02:22 12,7 C 12,2 C 10,6 C 84 % 0 lf 1011,1 hPa 0,0 l/m 0 min 0 min 0 W/m 10,5 km/h (2 Bft) 93,62 %
03.04.2016 02:24 12,7 C 12,2 C 10,6 C 84 % 0 lf 1011,1 hPa 0,0 l/m 0 min 0 min 0 W/m 8,4 km/h (2 Bft) 95,74 %
03.04.2016 02:26 12,6 C 12,2 C 10,6 C 84 % 0 lf 1011,2 hPa 0,0 l/m 0 min 0 min 0 W/m 14,6 km/h (3 Bft) 97,87 %
03.04.2016 02:28 12,6 C 12,8 C 10,6 C 84 % 0 lf 1011,2 hPa 0,0 l/m 0 min 0 min 0 W/m 12,6 km/h (3 Bft) 95,74 %
03.04.2016 02:30 12,6 C 12,8 C 10,6 C 84 % 0 lf 1011,2 hPa 0,0 l/m 0 min 0 min 0 W/m 16,7 km/h (3 Bft) 95,65 %
03.04.2016 02:32 12,6 C 12,8 C 11,1 C 84 % 0 lf 1011,2 hPa 0,0 l/m 0 min 0 min 0 W/m 16,7 km/h (3 Bft) 91,49 %
03.04.2016 02:34 12,6 C 12,8 C 11,1 C 84 % 0 lf 1011,1 hPa 0,0 l/m 0 min 0 min 0 W/m 12,6 km/h (3 Bft) 95,74 %
03.04.2016 02:36 12,6 C 12,8 C 11,1 C 84 % 0 lf 1011,2 hPa 0,0 l/m 0 min 0 min 0 W/m 14,6 km/h (3 Bft) 93,62 %
03.04.2016 02:38 12,6 C 12,8 C 11,1 C 84 % 0 lf 1011,2 hPa 0,0 l/m 0 min 0 min 0 W/m 10,5 km/h (2 Bft) 95,74 %
03.04.2016 02:40 12,6 C 12,8 C 11,1 C 84 % 0 lf 1011,0 hPa 0,0 l/m 0 min 0 min 0 W/m 14,6 km/h (3 Bft) 95,65 %
03.04.2016 02:42 12,6 C 12,8 C 11,1 C 84 % 0 lf 1011,0 hPa 0,0 l/m 0 min 0 min 0 W/m 12,6 km/h (3 Bft) 95,74 %
03.04.2016 02:44 12,5 C 12,8 C 11,1 C 84 % 0 lf 1010,9 hPa 0,0 l/m 0 min 0 min 0 W/m 8,4 km/h (2 Bft) 93,62 %
03.04.2016 02:46 12,5 C 12,8 C 11,1 C 84 % 0 lf 1010,9 hPa 0,0 l/m 0 min 0 min 0 W/m 10,5 km/h (2 Bft) 95,74 %
03.04.2016 02:48 12,5 C 12,8 C 11,1 C 84 % 0 lf 1010,9 hPa 0,0 l/m 0 min 0 min 0 W/m 10,5 km/h (2 Bft) 95,74 %
03.04.2016 02:50 12,5 C 12,8 C 10,6 C 84 % 0 lf 1010,8 hPa 0,0 l/m 0 min 0 min 0 W/m 14,6 km/h (3 Bft) 95,74 %
03.04.2016 02:52 12,5 C 12,8 C 11,1 C 84 % 0 lf 1010,8 hPa 0,0 l/m 0 min 0 min 0 W/m 12,6 km/h (3 Bft) 93,48 %
03.04.2016 02:54 12,5 C 12,8 C 10,6 C 84 % 0 lf 1010,7 hPa 0,0 l/m 0 min 0 min 0 W/m 12,6 km/h (3 Bft) 95,74 %
03.04.2016 02:56 12,5 C 12,8 C 10,6 C 84 % 0 lf 1010,7 hPa 0,0 l/m 0 min 0 min 0 W/m 12,6 km/h (3 Bft) 93,62 %
03.04.2016 02:58 12,5 C 12,8 C 10,6 C 84 % 0 lf 1010,7 hPa 0,0 l/m 0 min 0 min 0 W/m 12,6 km/h (3 Bft) 95,74 %
03.04.2016 03:00 12,5 C 12,8 C 11,1 C 84 % 0 lf 1010,7 hPa 0,0 l/m 0 min 0 min 0 W/m 10,5 km/h (2 Bft) 95,74 %
03.04.2016 03:02 12,5 C 12,8 C 11,1 C 84 % 0 lf 1010,8 hPa 0,0 l/m 0 min 0 min 0 W/m 10,5 km/h (2 Bft) 97,87 %
03.04.2016 03:04 12,5 C 12,8 C 11,1 C 84 % 0 lf 1010,7 hPa 0,0 l/m 0 min 0 min 0 W/m 12,6 km/h (3 Bft) 95,65 %
03.04.2016 03:06 12,5 C 12,8 C 11,1 C 84 % 0 lf 1010,8 hPa 0,0 l/m 0 min 0 min 0 W/m 18,8 km/h (3 Bft) 97,87 %
03.04.2016 03:08 12,5 C 12,8 C 11,1 C 84 % 0 lf 1010,9 hPa 0,0 l/m 0 min 0 min 0 W/m 14,6 km/h (3 Bft) 95,74 %
03.04.2016 03:10 12,4 C 12,8 C 11,1 C 84 % 0 lf 1011,0 hPa 0,0 l/m 0 min 0 min 0 W/m 16,7 km/h (3 Bft) 97,87 %
03.04.2016 03:12 12,4 C 12,8 C 11,1 C 84 % 0 lf 1011,0 hPa 0,0 l/m 0 min 0 min 0 W/m 16,7 km/h (3 Bft) 95,74 %
03.04.2016 03:14 12,4 C 12,8 C 11,1 C 84 % 0 lf 1010,9 hPa 0,0 l/m 0 min 0 min 0 W/m 14,6 km/h (3 Bft) 95,74 %
03.04.2016 03:16 12,5 C 12,8 C 11,1 C 84 % 0 lf 1010,9 hPa 0,0 l/m 0 min 0 min 0 W/m 12,6 km/h (3 Bft) 95,65 %
03.04.2016 03:18 12,4 C 12,8 C 11,1 C 84 % 0 lf 1010,9 hPa 0,0 l/m 0 min 0 min 0 W/m 10,5 km/h (2 Bft) 97,87 %
03.04.2016 03:20 12,4 C 12,2 C 11,1 C 84 % 0 lf 1010,9 hPa 0,0 l/m 0 min 0 min 0 W/m 8,4 km/h (2 Bft) 95,74 %
03.04.2016 03:22 12,5 C 12,2 C 11,1 C 84 % 0 lf 1010,9 hPa 0,0 l/m 0 min 0 min 0 W/m 10,5 km/h (2 Bft) 95,74 %
03.04.2016 03:24 12,4 C 12,2 C 11,1 C 84 % 0 lf 1010,9 hPa 0,0 l/m 0 min 0 min 0 W/m 8,4 km/h (2 Bft) 97,87 %
03.04.2016 03:26 12,4 C 12,2 C 11,1 C 84 % 0 lf 1010,9 hPa 0,0 l/m 0 min 0 min 0 W/m 8,4 km/h (2 Bft) 97,87 %
03.04.2016 03:28 12,4 C 12,2 C 10,6 C 84 % 0 lf 1011,0 hPa 0,0 l/m 0 min 0 min 0 W/m 8,4 km/h (2 Bft) 95,65 %
03.04.2016 03:30 12,4 C 12,2 C 10,6 C 84 % 0 lf 1011,0 hPa 0,0 l/m 0 min 0 min 0 W/m 10,5 km/h (2 Bft) 95,74 %
03.04.2016 03:32 12,4 C 12,2 C 10,6 C 84 % 0 lf 1010,9 hPa 0,0 l/m 0 min 0 min 0 W/m 8,4 km/h (2 Bft) 97,87 %
03.04.2016 03:34 12,4 C 12,2 C 10,6 C 84 % 0 lf 1010,9 hPa 0,0 l/m 0 min 0 min 0 W/m 10,5 km/h (2 Bft) 97,87 %
03.04.2016 03:36 12,4 C 12,2 C 10,6 C 84 % 0 lf 1010,9 hPa 0,0 l/m 0 min 0 min 0 W/m 8,4 km/h (2 Bft) 95,74 %
03.04.2016 03:38 12,4 C 12,2 C 10,6 C 84 % 0 lf 1010,9 hPa 0,0 l/m 0 min 0 min 0 W/m 18,8 km/h (3 Bft) 100,00 %
03.04.2016 03:40 12,4 C 12,2 C 10,6 C 84 % 0 lf 1010,9 hPa 0,0 l/m 0 min 0 min 0 W/m 12,6 km/h (3 Bft) 97,87 %
03.04.2016 03:42 12,4 C 12,8 C 11,1 C 84 % 0 lf 1010,9 hPa 0,0 l/m 0 min 0 min 0 W/m 10,5 km/h (2 Bft) 97,87 %
03.04.2016 03:44 12,4 C 12,8 C 11,1 C 84 % 0 lf 1010,8 hPa 0,0 l/m 0 min 0 min 0 W/m 10,5 km/h (2 Bft) 100,00 %
03.04.2016 03:46 12,4 C 12,8 C 11,1 C 84 % 0 lf 1010,8 hPa 0,0 l/m 0 min 0 min 0 W/m 6,3 km/h (2 Bft) 100,00 %
03.04.2016 03:48 12,4 C 12,8 C 10,6 C 84 % 0 lf 1010,7 hPa 0,0 l/m 0 min 0 min 0 W/m 8,4 km/h (2 Bft) 97,87 %
03.04.2016 03:50 12,4 C 12,8 C 10,6 C 84 % 0 lf 1010,8 hPa 0,0 l/m 0 min 0 min 0 W/m 6,3 km/h (2 Bft) 91,30 %
03.04.2016 03:52 12,4 C 12,8 C 10,6 C 84 % 0 lf 1010,8 hPa 0,0 l/m 0 min 0 min 0 W/m 10,5 km/h (2 Bft) 95,74 %
03.04.2016 03:54 12,4 C 12,8 C 10,6 C 84 % 0 lf 1010,7 hPa 0,0 l/m 0 min 0 min 0 W/m 8,4 km/h (2 Bft) 93,62 %
03.04.2016 03:56 12,4 C 12,2 C 10,6 C 84 % 0 lf 1010,7 hPa 0,0 l/m 0 min 0 min 0 W/m 10,5 km/h (2 Bft) 95,74 %
03.04.2016 03:58 12,4 C 12,8 C 10,6 C 84 % 0 lf 1010,8 hPa 0,0 l/m 0 min 0 min 0 W/m 10,5 km/h (2 Bft) 93,62 %
03.04.2016 04:00 12,4 C 12,2 C 10,6 C 84 % 0 lf 1010,7 hPa 0,0 l/m 0 min 0 min 0 W/m 8,4 km/h (2 Bft) 91,49 %
03.04.2016 04:06 12,4 C 12,8 C 10,6 C 84 % 0 lf 1010,7 hPa 0,0 l/m 0 min 0 min 0 W/m 8,4 km/h (2 Bft) 100,00 %
03.04.2016 04:08 12,4 C 12,8 C 10,6 C 84 % 0 lf 1010,6 hPa 0,0 l/m 0 min 0 min 0 W/m 6,3 km/h (2 Bft) 95,74 %
03.04.2016 04:10 12,4 C 12,2 C 10,6 C 84 % 0 lf 1010,7 hPa 0,0 l/m 0 min 0 min 0 W/m 6,3 km/h (2 Bft) 93,62 %
03.04.2016 04:12 12,4 C 12,8 C 10,6 C 84 % 0 lf 1010,7 hPa 0,0 l/m 0 min 0 min 0 W/m 6,3 km/h (2 Bft) 95,74 %
03.04.2016 04:14 12,4 C 12,2 C 10,6 C 84 % 0 lf 1010,7 hPa 0,0 l/m 0 min 0 min 0 W/m 8,4 km/h (2 Bft) 95,65 %
03.04.2016 04:16 12,4 C 12,8 C 10,6 C 84 % 0 lf 1010,7 hPa 0,0 l/m 0 min 0 min 0 W/m 6,3 km/h (2 Bft) 95,74 %
03.04.2016 04:18 12,4 C 12,2 C 10,6 C 84 % 0 lf 1010,7 hPa 0,0 l/m 0 min 0 min 0 W/m 4,2 km/h (1 Bft) 95,74 %
03.04.2016 04:20 12,4 C 12,2 C 10,6 C 84 % 0 lf 1010,5 hPa 0,0 l/m 0 min 0 min 0 W/m 10,5 km/h (2 Bft) 97,87 %
03.04.2016 04:22 12,4 C 12,2 C 11,1 C 84 % 0 lf 1010,2 hPa 0,0 l/m 0 min 0 min 0 W/m 14,6 km/h (3 Bft) 97,87 %
03.04.2016 04:24 12,4 C 12,2 C 11,1 C 84 % 0 lf 1010,2 hPa 0,0 l/m 0 min 0 min 0 W/m 14,6 km/h (3 Bft) 97,87 %
03.04.2016 04:26 12,4 C 12,2 C 10,6 C 84 % 0 lf 1010,4 hPa 0,0 l/m 0 min 0 min 0 W/m 6,3 km/h (2 Bft) 95,65 %
03.04.2016 04:28 12,4 C 12,2 C 10,6 C 84 % 0 lf 1010,4 hPa 0,0 l/m 0 min 0 min 0 W/m 10,5 km/h (2 Bft) 95,74 %
03.04.2016 04:30 12,4 C 12,2 C 10,6 C 84 % 0 lf 1010,5 hPa 0,0 l/m 0 min 0 min 0 W/m 8,4 km/h (2 Bft) 95,74 %
03.04.2016 04:32 12,3 C 12,2 C 10,6 C 84 % 0 lf 1010,5 hPa 0,0 l/m 0 min 0 min 0 W/m 8,4 km/h (2 Bft) 93,62 %
03.04.2016 04:34 12,3 C 12,2 C 10,6 C 84 % 0 lf 1010,5 hPa 0,0 l/m 0 min 0 min 0 W/m 8,4 km/h (2 Bft) 97,87 %
03.04.2016 04:36 12,3 C 12,2 C 10,6 C 84 % 0 lf 1010,6 hPa 0,0 l/m 0 min 0 min 0 W/m 10,5 km/h (2 Bft) 97,87 %
03.04.2016 04:38 12,3 C 12,2 C 10,6 C 84 % 0 lf 1010,6 hPa 0,0 l/m 0 min 0 min 0 W/m 8,4 km/h (2 Bft) 100,00 %
03.04.2016 04:40 12,3 C 12,2 C 10,6 C 84 % 0 lf 1010,5 hPa 0,0 l/m 0 min 0 min 0 W/m 8,4 km/h (2 Bft) 100,00 %
03.04.2016 04:42 12,3 C 12,2 C 10,6 C 84 % 0 lf 1010,6 hPa 0,0 l/m 0 min 0 min 0 W/m 12,6 km/h (3 Bft) 97,87 %
03.04.2016 04:44 12,3 C 12,2 C 10,6 C 84 % 0 lf 1010,5 hPa 0,0 l/m 0 min 0 min 0 W/m 12,6 km/h (3 Bft) 100,00 %
03.04.2016 04:46 12,3 C 12,2 C 10,6 C 84 % 0 lf 1010,5 hPa 0,0 l/m 0 min 0 min 0 W/m 12,6 km/h (3 Bft) 93,62 %
03.04.2016 04:48 12,3 C 12,2 C 10,6 C 84 % 0 lf 1010,5 hPa 0,0 l/m 0 min 0 min 0 W/m 10,5 km/h (2 Bft) 100,00 %
03.04.2016 04:50 12,3 C 12,2 C 10,6 C 84 % 0 lf 1010,5 hPa 0,0 l/m 0 min 0 min 0 W/m 14,6 km/h (3 Bft) 95,65 %
03.04.2016 04:52 12,3 C 12,2 C 10,6 C 84 % 0 lf 1010,5 hPa 0,0 l/m 0 min 0 min 0 W/m 12,6 km/h (3 Bft) 100,00 %
03.04.2016 04:54 12,3 C 12,2 C 10,6 C 84 % 0 lf 1010,6 hPa 0,0 l/m 0 min 0 min 0 W/m 12,6 km/h (3 Bft) 97,87 %
03.04.2016 04:56 12,3 C 12,2 C 10,6 C 84 % 0 lf 1010,6 hPa 0,0 l/m 0 min 0 min 0 W/m 10,5 km/h (2 Bft) 100,00 %
03.04.2016 04:58 12,3 C 12,2 C 10,6 C 85 % 0 lf 1010,6 hPa 0,0 l/m 0 min 0 min 0 W/m 10,5 km/h (2 Bft) 95,74 %
03.04.2016 05:00 12,2 C 12,2 C 10,6 C 85 % 0 lf 1010,5 hPa 0,0 l/m 0 min 0 min 0 W/m 10,5 km/h (2 Bft) 100,00 %
03.04.2016 05:02 12,2 C 12,2 C 10,6 C 85 % 0 lf 1010,5 hPa 0,0 l/m 0 min 0 min 0 W/m 8,4 km/h (2 Bft) 97,87 %
03.04.2016 05:04 12,2 C 12,2 C 10,6 C 85 % 0 lf 1010,6 hPa 0,0 l/m 0 min 0 min 0 W/m 10,5 km/h (2 Bft) 95,74 %
03.04.2016 05:06 12,2 C 12,2 C 10,6 C 85 % 0 lf 1010,6 hPa 0,0 l/m 0 min 2 min 0 W/m 8,4 km/h (2 Bft) 95,74 %
03.04.2016 05:08 12,2 C 12,2 C 10,6 C 85 % 0 lf 1010,5 hPa 0,0 l/m 0 min 2 min 0 W/m 10,5 km/h (2 Bft) 97,87 %
03.04.2016 05:10 12,2 C 11,7 C 10,6 C 85 % 1 lf 1010,4 hPa 0,0 l/m 0 min 2 min 0 W/m 10,5 km/h (2 Bft) 93,62 %
03.04.2016 05:12 12,2 C 11,7 C 10,6 C 85 % 1 lf 1010,4 hPa 0,0 l/m 0 min 2 min 0 W/m 10,5 km/h (2 Bft) 97,83 %
03.04.2016 05:14 12,2 C 11,7 C 10,6 C 85 % 2 lf 1010,4 hPa 0,0 l/m 0 min 2 min 0 W/m 10,5 km/h (2 Bft) 97,87 %
03.04.2016 05:16 12,2 C 11,7 C 10,0 C 85 % 1 lf 1010,3 hPa 0,0 l/m 0 min 2 min 0 W/m 12,6 km/h (3 Bft) 97,87 %
03.04.2016 05:18 12,2 C 11,7 C 10,0 C 85 % 0 lf 1010,2 hPa 0,0 l/m 0 min 2 min 0 W/m 8,4 km/h (2 Bft) 97,87 %
03.04.2016 05:20 12,2 C 11,7 C 10,0 C 85 % 0 lf 1010,2 hPa 0,0 l/m 0 min 0 min 0 W/m 8,4 km/h (2 Bft) 97,87 %
03.04.2016 05:22 12,1 C 11,7 C 10,0 C 85 % 0 lf 1010,1 hPa 0,0 l/m 0 min 0 min 0 W/m 12,6 km/h (3 Bft) 89,36 %
03.04.2016 05:24 12,1 C 11,7 C 10,0 C 85 % 1 lf 1010,1 hPa 0,0 l/m 0 min 0 min 0 W/m 8,4 km/h (2 Bft) 97,83 %
03.04.2016 05:26 12,1 C 11,7 C 10,0 C 85 % 0 lf 1010,0 hPa 0,0 l/m 0 min 0 min 0 W/m 10,5 km/h (2 Bft) 95,74 %
03.04.2016 05:28 12,1 C 12,2 C 10,0 C 85 % 0 lf 1010,1 hPa 0,0 l/m 0 min 0 min 0 W/m 10,5 km/h (2 Bft) 93,62 %
03.04.2016 05:30 12,1 C 12,2 C 10,0 C 85 % 0 lf 1010,1 hPa 0,0 l/m 0 min 0 min 0 W/m 6,3 km/h (2 Bft) 95,74 %
03.04.2016 05:32 12,1 C 11,7 C 10,0 C 85 % 0 lf 1010,1 hPa 0,0 l/m 0 min 0 min 0 W/m 8,4 km/h (2 Bft) 97,87 %
03.04.2016 05:34 12,1 C 12,2 C 10,0 C 86 % 0 lf 1010,1 hPa 0,0 l/m 0 min 0 min 0 W/m 10,5 km/h (2 Bft) 95,74 %
03.04.2016 05:36 12,1 C 11,7 C 10,0 C 86 % 0 lf 1010,2 hPa 0,0 l/m 0 min 2 min 0 W/m 10,5 km/h (2 Bft) 95,65 %
03.04.2016 05:38 12,1 C 11,7 C 10,0 C 86 % 0 lf 1010,2 hPa 0,0 l/m 0 min 2 min 0 W/m 14,6 km/h (3 Bft) 95,74 %
03.04.2016 05:40 12,0 C 11,7 C 10,0 C 86 % 0 lf 1010,3 hPa 0,0 l/m 0 min 0 min 0 W/m 16,7 km/h (3 Bft) 95,74 %
03.04.2016 05:42 12,0 C 11,7 C 10,0 C 86 % 0 lf 1010,3 hPa 0,0 l/m 0 min 0 min 0 W/m 10,5 km/h (2 Bft) 95,74 %
03.04.2016 05:44 12,0 C 11,7 C 10,0 C 86 % 0 lf 1010,2 hPa 0,0 l/m 0 min 0 min 0 W/m 16,7 km/h (3 Bft) 95,74 %
03.04.2016 05:46 12,0 C 11,7 C 10,0 C 86 % 0 lf 1010,2 hPa 0,0 l/m 0 min 0 min 0 W/m 23,0 km/h (4 Bft) 95,74 %
03.04.2016 05:48 11,9 C 11,7 C 10,0 C 86 % 0 lf 1010,2 hPa 0,0 l/m 0 min 0 min 0 W/m 16,7 km/h (3 Bft) 93,48 %
03.04.2016 05:50 11,9 C 12,2 C 10,6 C 86 % 0 lf 1010,1 hPa 0,0 l/m 0 min 2 min 0 W/m 12,6 km/h (3 Bft) 95,74 %
03.04.2016 05:52 11,9 C 12,2 C 10,6 C 86 % 0 lf 1010,2 hPa 0,0 l/m 0 min 0 min 0 W/m 16,7 km/h (3 Bft) 93,62 %
03.04.2016 05:54 11,9 C 12,2 C 10,6 C 86 % 0 lf 1010,2 hPa 0,0 l/m 0 min 0 min 0 W/m 14,6 km/h (3 Bft) 95,74 %
03.04.2016 05:56 11,9 C 12,2 C 10,6 C 86 % 0 lf 1010,3 hPa 0,0 l/m 0 min 2 min 0 W/m 14,6 km/h (3 Bft) 95,74 %
03.04.2016 05:58 11,9 C 11,7 C 10,6 C 86 % 0 lf 1010,1 hPa 0,0 l/m 0 min 0 min 0 W/m 14,6 km/h (3 Bft) 95,74 %
03.04.2016 06:00 11,9 C 12,2 C 10,6 C 86 % 0 lf 1010,2 hPa 0,0 l/m 0 min 0 min 0 W/m 12,6 km/h (3 Bft) 97,83 %
03.04.2016 06:02 11,9 C 12,2 C 10,0 C 86 % 0 lf 1010,2 hPa 0,0 l/m 0 min 0 min 0 W/m 14,6 km/h (3 Bft) 95,74 %
03.04.2016 06:04 11,9 C 11,7 C 10,0 C 86 % 0 lf 1010,2 hPa 0,0 l/m 0 min 0 min 0 W/m 16,7 km/h (3 Bft) 97,87 %
03.04.2016 06:06 11,9 C 12,2 C 10,6 C 86 % 0 lf 1010,2 hPa 0,0 l/m 0 min 0 min 0 W/m 16,7 km/h (3 Bft) 97,87 %
03.04.2016 06:08 11,9 C 12,2 C 10,6 C 86 % 0 lf 1010,2 hPa 0,0 l/m 0 min 0 min 0 W/m 14,6 km/h (3 Bft) 95,74 %
03.04.2016 06:10 11,9 C 12,2 C 10,6 C 86 % 0 lf 1010,0 hPa 0,0 l/m 0 min 0 min 0 W/m 14,6 km/h (3 Bft) 97,87 %
03.04.2016 06:12 11,9 C 12,2 C 10,6 C 86 % 0 lf 1010,0 hPa 0,0 l/m 0 min 0 min 0 W/m 14,6 km/h (3 Bft) 97,83 %
03.04.2016 06:14 11,9 C 12,2 C 10,6 C 86 % 0 lf 1010,0 hPa 0,0 l/m 0 min 0 min 0 W/m 14,6 km/h (3 Bft) 100,00 %
03.04.2016 06:16 11,9 C 12,2 C 10,6 C 86 % 0 lf 1010,0 hPa 0,0 l/m 0 min 0 min 0 W/m 14,6 km/h (3 Bft) 100,00 %
03.04.2016 06:18 11,8 C 11,7 C 10,6 C 86 % 0 lf 1009,9 hPa 0,0 l/m 0 min 0 min 0 W/m 12,6 km/h (3 Bft) 97,87 %
03.04.2016 06:20 11,8 C 12,2 C 10,6 C 86 % 0 lf 1009,8 hPa 0,0 l/m 0 min 0 min 0 W/m 10,5 km/h (2 Bft) 97,87 %
03.04.2016 06:22 11,8 C 12,2 C 10,6 C 86 % 0 lf 1009,9 hPa 0,0 l/m 0 min 0 min 0 W/m 8,4 km/h (2 Bft) 95,65 %
03.04.2016 06:24 11,8 C 12,2 C 10,6 C 86 % 0 lf 1009,9 hPa 0,0 l/m 0 min 0 min 0 W/m 8,4 km/h (2 Bft) 97,87 %
03.04.2016 06:26 11,8 C 12,2 C 10,6 C 86 % 0 lf 1009,9 hPa 0,0 l/m 0 min 0 min 0 W/m 10,5 km/h (2 Bft) 97,87 %
03.04.2016 06:28 11,8 C 12,2 C 10,6 C 85 % 0 lf 1009,9 hPa 0,0 l/m 0 min 0 min 0 W/m 10,5 km/h (2 Bft) 97,87 %
03.04.2016 06:30 11,8 C 11,7 C 10,6 C 85 % 0 lf 1009,9 hPa 0,0 l/m 0 min 0 min 0 W/m 10,5 km/h (2 Bft) 93,62 %
03.04.2016 06:32 11,8 C 12,2 C 10,6 C 86 % 0 lf 1009,9 hPa 0,0 l/m 0 min 0 min 0 W/m 8,4 km/h (2 Bft) 97,87 %
03.04.2016 06:34 11,8 C 11,7 C 10,6 C 86 % 0 lf 1009,8 hPa 0,0 l/m 0 min 0 min 0 W/m 12,6 km/h (3 Bft) 97,83 %
03.04.2016 06:36 11,8 C 11,7 C 10,6 C 86 % 0 lf 1009,9 hPa 0,0 l/m 0 min 0 min 0 W/m 10,5 km/h (2 Bft) 97,87 %
03.04.2016 06:38 11,8 C 11,7 C 10,6 C 86 % 0 lf 1009,9 hPa 0,0 l/m 0 min 0 min 0 W/m 14,6 km/h (3 Bft) 95,74 %
03.04.2016 06:40 11,8 C 11,7 C 10,6 C 86 % 0 lf 1009,9 hPa 0,0 l/m 0 min 0 min 0 W/m 12,6 km/h (3 Bft) 97,87 %
03.04.2016 06:42 11,8 C 11,7 C 10,6 C 86 % 0 lf 1010,0 hPa 0,0 l/m 0 min 0 min 0 W/m 10,5 km/h (2 Bft) 95,74 %
03.04.2016 06:44 11,8 C 11,7 C 10,6 C 86 % 0 lf 1010,1 hPa 0,0 l/m 0 min 0 min 0 W/m 10,5 km/h (2 Bft) 95,74 %
03.04.2016 06:46 11,8 C 11,7 C 10,0 C 86 % 0 lf 1010,1 hPa 0,0 l/m 0 min 0 min 0 W/m 8,4 km/h (2 Bft) 89,13 %
03.04.2016 06:48 11,8 C 11,7 C 10,0 C 86 % 0 lf 1010,1 hPa 0,0 l/m 0 min 0 min 0 W/m 6,3 km/h (2 Bft) 93,62 %
03.04.2016 06:50 11,8 C 11,7 C 10,0 C 86 % 0 lf 1010,1 hPa 0,0 l/m 0 min 0 min 0 W/m 10,5 km/h (2 Bft) 93,62 %
03.04.2016 06:52 11,8 C 11,7 C 10,0 C 86 % 0 lf 1010,1 hPa 0,0 l/m 0 min 0 min 0 W/m 8,4 km/h (2 Bft) 93,62 %
03.04.2016 06:54 11,8 C 11,7 C 10,0 C 86 % 0 lf 1010,2 hPa 0,0 l/m 0 min 0 min 0 W/m 6,3 km/h (2 Bft) 95,74 %
03.04.2016 06:56 11,8 C 11,7 C 10,0 C 86 % 0 lf 1010,1 hPa 0,0 l/m 0 min 0 min 0 W/m 10,5 km/h (2 Bft) 95,74 %
03.04.2016 06:58 11,8 C 11,7 C 10,0 C 86 % 0 lf 1010,1 hPa 0,0 l/m 0 min 0 min 0 W/m 14,6 km/h (3 Bft) 95,65 %
03.04.2016 07:00 11,8 C 11,7 C 10,0 C 86 % 0 lf 1010,2 hPa 0,0 l/m 0 min 0 min 0 W/m 8,4 km/h (2 Bft) 95,74 %
03.04.2016 07:02 11,7 C 11,7 C 10,6 C 86 % 0 lf 1010,2 hPa 0,0 l/m 0 min 0 min 0 W/m 10,5 km/h (2 Bft) 95,74 %
03.04.2016 07:04 11,7 C 11,7 C 10,6 C 86 % 0 lf 1010,3 hPa 0,0 l/m 0 min 0 min 0 W/m 10,5 km/h (2 Bft) 91,49 %
03.04.2016 07:06 11,7 C 11,7 C 10,6 C 86 % 0 lf 1010,3 hPa 0,0 l/m 0 min 0 min 0 W/m 12,6 km/h (3 Bft) 95,74 %
03.04.2016 07:08 11,7 C 11,7 C 10,6 C 86 % 0 lf 1010,3 hPa 0,0 l/m 0 min 0 min 0 W/m 12,6 km/h (3 Bft) 95,74 %
03.04.2016 07:10 11,7 C 11,7 C 10,6 C 86 % 0 lf 1010,3 hPa 0,0 l/m 0 min 0 min 0 W/m 12,6 km/h (3 Bft) 95,65 %
03.04.2016 07:12 11,7 C 11,7 C 10,6 C 86 % 0 lf 1010,3 hPa 0,0 l/m 0 min 0 min 0 W/m 8,4 km/h (2 Bft) 95,74 %
03.04.2016 07:14 11,7 C 11,7 C 10,6 C 86 % 0 lf 1010,4 hPa 0,0 l/m 0 min 0 min 0 W/m 6,3 km/h (2 Bft) 95,74 %
03.04.2016 07:16 11,7 C 11,7 C 10,0 C 86 % 0 lf 1010,3 hPa 0,0 l/m 0 min 2 min 0 W/m 8,4 km/h (2 Bft) 95,74 %
03.04.2016 07:18 11,7 C 11,7 C 10,0 C 86 % 0 lf 1010,4 hPa 0,0 l/m 0 min 2 min 1 W/m 6,3 km/h (2 Bft) 95,74 %
03.04.2016 07:20 11,7 C 11,7 C 10,0 C 86 % 0 lf 1010,4 hPa 0,0 l/m 0 min 2 min 5 W/m 10,5 km/h (2 Bft) 87,23 %
03.04.2016 07:22 11,7 C 11,7 C 10,0 C 87 % 0 lf 1010,4 hPa 0,0 l/m 0 min 2 min 5 W/m 8,4 km/h (2 Bft) 89,13 %
03.04.2016 07:24 11,7 C 11,1 C 10,0 C 87 % 0 lf 1010,4 hPa 0,0 l/m 0 min 2 min 5 W/m 8,4 km/h (2 Bft) 95,74 %
03.04.2016 07:26 11,7 C 11,1 C 10,0 C 87 % 0 lf 1010,4 hPa 0,0 l/m 0 min 2 min 5 W/m 10,5 km/h (2 Bft) 91,49 %
03.04.2016 07:28 11,7 C 11,1 C 9,4 C 87 % 1 lf 1010,4 hPa 0,0 l/m 0 min 2 min 5 W/m 8,4 km/h (2 Bft) 93,62 %
03.04.2016 07:30 11,7 C 11,1 C 9,4 C 87 % 0 lf 1010,5 hPa 0,0 l/m 0 min 2 min 5 W/m 8,4 km/h (2 Bft) 97,87 %
03.04.2016 07:32 11,7 C 11,1 C 9,4 C 87 % 0 lf 1010,4 hPa 0,0 l/m 0 min 2 min 6 W/m 8,4 km/h (2 Bft) 100,00 %
03.04.2016 07:34 11,7 C 11,1 C 9,4 C 87 % 0 lf 1010,5 hPa 0,0 l/m 0 min 2 min 7 W/m 6,3 km/h (2 Bft) 95,65 %
03.04.2016 07:36 11,7 C 10,6 C 9,4 C 87 % 3 lf 1010,4 hPa 0,0 l/m 0 min 2 min 8 W/m 10,5 km/h (2 Bft) 91,49 %
03.04.2016 07:38 11,7 C 10,6 C 9,4 C 87 % 3 lf 1010,4 hPa 0,0 l/m 0 min 2 min 9 W/m 12,6 km/h (3 Bft) 97,87 %
03.04.2016 07:40 11,7 C 10,6 C 9,4 C 87 % 3 lf 1010,4 hPa 0,0 l/m 0 min 2 min 11 W/m 10,5 km/h (2 Bft) 95,74 %
03.04.2016 07:42 11,7 C 10,6 C 9,4 C 87 % 3 lf 1010,4 hPa 0,0 l/m 0 min 2 min 11 W/m 10,5 km/h (2 Bft) 95,74 %
03.04.2016 07:44 11,7 C 10,6 C 8,9 C 87 % 2 lf 1010,5 hPa 0,2 l/m 0 min 2 min 12 W/m 8,4 km/h (2 Bft) 93,48 %
03.04.2016 07:46 11,7 C 10,6 C 8,9 C 88 % 3 lf 1010,4 hPa 0,0 l/m 0 min 2 min 13 W/m 10,5 km/h (2 Bft) 97,87 %
03.04.2016 07:48 11,6 C 10,6 C 8,9 C 88 % 5 lf 1010,4 hPa 0,0 l/m 0 min 2 min 16 W/m 8,4 km/h (2 Bft) 91,49 %
03.04.2016 07:50 11,6 C 10,6 C 8,9 C 88 % 4 lf 1010,4 hPa 0,0 l/m 0 min 2 min 20 W/m 6,3 km/h (2 Bft) 89,36 %
03.04.2016 07:52 11,6 C 10,6 C 8,9 C 88 % 3 lf 1010,5 hPa 0,0 l/m 0 min 2 min 23 W/m 8,4 km/h (2 Bft) 93,62 %
03.04.2016 07:54 11,6 C 10,6 C 8,9 C 88 % 3 lf 1010,5 hPa 0,0 l/m 0 min 2 min 25 W/m 12,6 km/h (3 Bft) 95,74 %
03.04.2016 07:56 11,6 C 10,6 C 8,9 C 88 % 1 lf 1010,4 hPa 0,0 l/m 0 min 2 min 24 W/m 10,5 km/h (2 Bft) 89,13 %
03.04.2016 07:58 11,6 C 10,6 C 8,9 C 88 % 0 lf 1010,5 hPa 0,0 l/m 0 min 2 min 22 W/m 10,5 km/h (2 Bft) 95,74 %
03.04.2016 08:00 11,5 C 10,6 C 8,9 C 88 % 0 lf 1010,5 hPa 0,0 l/m 0 min 2 min 26 W/m 10,5 km/h (2 Bft) 95,74 %
03.04.2016 08:02 11,5 C 10,6 C 8,9 C 88 % 2 lf 1010,5 hPa 0,0 l/m 0 min 2 min 32 W/m 10,5 km/h (2 Bft) 95,74 %
03.04.2016 08:04 11,5 C 10,6 C 8,9 C 89 % 1 lf 1010,5 hPa 0,0 l/m 0 min 2 min 39 W/m 8,4 km/h (2 Bft) 95,74 %
03.04.2016 08:06 11,5 C 10,6 C 8,9 C 89 % 0 lf 1010,6 hPa 0,0 l/m 0 min 2 min 40 W/m 10,5 km/h (2 Bft) 97,87 %
03.04.2016 08:08 11,4 C 10,6 C 8,9 C 89 % 0 lf 1010,7 hPa 0,0 l/m 0 min 2 min 40 W/m 10,5 km/h (2 Bft) 95,65 %
03.04.2016 08:10 11,4 C 10,6 C 8,9 C 89 % 0 lf 1010,6 hPa 0,0 l/m 0 min 2 min 40 W/m 12,6 km/h (3 Bft) 97,87 %
03.04.2016 08:12 11,4 C 10,6 C 9,4 C 89 % 0 lf 1010,6 hPa 0,0 l/m 0 min 2 min 40 W/m 10,5 km/h (2 Bft) 95,74 %
03.04.2016 08:14 11,4 C 10,6 C 9,4 C 89 % 0 lf 1010,6 hPa 0,0 l/m 0 min 2 min 38 W/m 10,5 km/h (2 Bft) 93,62 %
03.04.2016 08:16 11,4 C 10,6 C 9,4 C 89 % 1 lf 1010,6 hPa 0,0 l/m 0 min 2 min 33 W/m 10,5 km/h (2 Bft) 95,74 %
03.04.2016 08:18 11,4 C 10,6 C 9,4 C 89 % 0 lf 1010,6 hPa 0,0 l/m 0 min 2 min 30 W/m 10,5 km/h (2 Bft) 93,62 %
03.04.2016 08:20 11,4 C 10,6 C 9,4 C 90 % 0 lf 1010,6 hPa 0,0 l/m 0 min 2 min 28 W/m 8,4 km/h (2 Bft) 100,00 %
03.04.2016 08:22 11,4 C 10,6 C 9,4 C 90 % 0 lf 1010,6 hPa 0,0 l/m 0 min 2 min 26 W/m 10,5 km/h (2 Bft) 75,00 %
03.04.2016 08:24 11,4 C 10,6 C 9,4 C 90 % 0 lf 1010,6 hPa 0,0 l/m 0 min 2 min 29 W/m 12,6 km/h (3 Bft) 100,00 %
03.04.2016 08:26 11,4 C 10,6 C 9,4 C 90 % 0 lf 1010,5 hPa 0,0 l/m 0 min 2 min 36 W/m 8,4 km/h (2 Bft) 100,00 %
03.04.2016 08:28 11,4 C 10,6 C 9,4 C 90 % 0 lf 1010,6 hPa 0,0 l/m 0 min 2 min 46 W/m 10,5 km/h (2 Bft) 97,87 %
03.04.2016 08:30 11,4 C 10,6 C 9,4 C 90 % 0 lf 1010,6 hPa 0,0 l/m 0 min 2 min 55 W/m 10,5 km/h (2 Bft) 95,65 %
03.04.2016 08:32 11,4 C 11,1 C 9,4 C 90 % 0 lf 1010,6 hPa 0,0 l/m 0 min 2 min 67 W/m 8,4 km/h (2 Bft) 95,74 %
03.04.2016 08:37 11,4 C 11,1 C 9,4 C 90 % 0 lf 1010,5 hPa 0,0 l/m 0 min 2 min 83 W/m 10,5 km/h (2 Bft) 90,00 %
03.04.2016 08:38 11,4 C 11,1 C 9,4 C 90 % 0 lf 1010,5 hPa 0,0 l/m 0 min 1 min 101 W/m 12,6 km/h (3 Bft) 100,00 %
03.04.2016 08:40 11,4 C 11,7 C 10,0 C 91 % 0 lf 1010,6 hPa 0,0 l/m 0 min 2 min 103 W/m 10,5 km/h (2 Bft) 100,00 %
03.04.2016 08:42 11,5 C 11,7 C 10,0 C 90 % 2 lf 1010,5 hPa 0,0 l/m 0 min 2 min 105 W/m 12,6 km/h (3 Bft) 97,83 %
03.04.2016 08:44 11,5 C 11,7 C 10,0 C 91 % 1 lf 1010,5 hPa 0,0 l/m 0 min 2 min 105 W/m 10,5 km/h (2 Bft) 97,87 %
03.04.2016 08:46 11,5 C 11,7 C 10,0 C 91 % 1 lf 1010,6 hPa 0,0 l/m 0 min 2 min 101 W/m 10,5 km/h (2 Bft) 100,00 %
03.04.2016 08:48 11,6 C 11,7 C 10,0 C 91 % 0 lf 1010,6 hPa 0,0 l/m 0 min 2 min 95 W/m 10,5 km/h (2 Bft) 93,62 %
03.04.2016 08:50 11,6 C 11,7 C 10,0 C 91 % 1 lf 1010,5 hPa 0,0 l/m 0 min 2 min 91 W/m 12,6 km/h (3 Bft) 100,00 %
03.04.2016 08:52 11,6 C 11,7 C 10,0 C 91 % 0 lf 1010,5 hPa 0,0 l/m 0 min 2 min 93 W/m 12,6 km/h (3 Bft) 100,00 %
03.04.2016 08:54 11,6 C 11,1 C 10,0 C 91 % 0 lf 1010,7 hPa 0,0 l/m 0 min 2 min 92 W/m 14,6 km/h (3 Bft) 97,87 %
03.04.2016 08:56 11,6 C 11,1 C 9,4 C 91 % 0 lf 1010,7 hPa 0,0 l/m 0 min 2 min 90 W/m 14,6 km/h (3 Bft) 95,65 %
03.04.2016 08:58 11,7 C 11,1 C 10,0 C 91 % 0 lf 1010,7 hPa 0,0 l/m 0 min 2 min 82 W/m 12,6 km/h (3 Bft) 100,00 %
03.04.2016 09:00 11,7 C 11,7 C 10,0 C 91 % 1 lf 1010,7 hPa 0,0 l/m 0 min 2 min 75 W/m 10,5 km/h (2 Bft) 98,08 %
03.04.2016 09:02 11,7 C 11,7 C 10,0 C 91 % 0 lf 1010,6 hPa 0,0 l/m 0 min 2 min 71 W/m 12,6 km/h (3 Bft) 97,78 %
03.04.2016 09:04 11,7 C 11,7 C 10,0 C 91 % 0 lf 1010,6 hPa 0,0 l/m 0 min 2 min 70 W/m 12,6 km/h (3 Bft) 93,62 %
03.04.2016 09:06 11,7 C 11,7 C 10,0 C 91 % 0 lf 1010,6 hPa 0,0 l/m 0 min 2 min 68 W/m 12,6 km/h (3 Bft) 95,65 %
03.04.2016 09:08 11,7 C 11,7 C 10,0 C 91 % 2 lf 1010,6 hPa 0,0 l/m 0 min 2 min 64 W/m 14,6 km/h (3 Bft) 100,00 %
03.04.2016 09:10 11,7 C 11,7 C 10,0 C 91 % 0 lf 1010,6 hPa 0,0 l/m 0 min 2 min 61 W/m 12,6 km/h (3 Bft) 97,87 %
03.04.2016 09:12 11,7 C 11,7 C 10,0 C 91 % 0 lf 1010,6 hPa 0,0 l/m 0 min 2 min 58 W/m 12,6 km/h (3 Bft) 97,87 %
03.04.2016 09:14 11,8 C 11,1 C 10,0 C 91 % 0 lf 1010,6 hPa 0,0 l/m 0 min 2 min 56 W/m 10,5 km/h (2 Bft) 100,00 %
03.04.2016 09:16 11,8 C 11,1 C 10,0 C 91 % 0 lf 1010,5 hPa 0,0 l/m 0 min 2 min 56 W/m 12,6 km/h (3 Bft) 100,00 %
03.04.2016 09:18 11,8 C 11,1 C 10,0 C 91 % 1 lf 1010,5 hPa 0,0 l/m 0 min 2 min 57 W/m 14,6 km/h (3 Bft) 95,65 %
03.04.2016 09:20 11,8 C 11,1 C 10,0 C 91 % 0 lf 1010,5 hPa 0,0 l/m 0 min 2 min 60 W/m 12,6 km/h (3 Bft) 97,87 %
03.04.2016 09:22 11,8 C 11,1 C 10,0 C 91 % 1 lf 1010,6 hPa 0,0 l/m 0 min 2 min 62 W/m 12,6 km/h (3 Bft) 97,87 %
03.04.2016 09:24 11,8 C 11,1 C 10,0 C 91 % 2 lf 1010,6 hPa 0,2 l/m 0 min 2 min 63 W/m 10,5 km/h (2 Bft) 100,00 %
03.04.2016 09:26 11,8 C 11,1 C 10,0 C 91 % 1 lf 1010,5 hPa 0,0 l/m 0 min 2 min 65 W/m 6,3 km/h (2 Bft) 100,00 %
03.04.2016 09:28 11,8 C 11,1 C 10,0 C 91 % 4 lf 1010,5 hPa 0,0 l/m 0 min 2 min 67 W/m 8,4 km/h (2 Bft) 93,48 %
03.04.2016 09:30 11,9 C 11,1 C 10,0 C 91 % 4 lf 1010,5 hPa 0,0 l/m 0 min 2 min 71 W/m 8,4 km/h (2 Bft) 95,74 %
03.04.2016 09:32 11,9 C 11,1 C 10,0 C 91 % 9 lf 1010,5 hPa 0,0 l/m 0 min 2 min 77 W/m 10,5 km/h (2 Bft) 97,87 %
03.04.2016 09:34 11,9 C 11,1 C 10,0 C 91 % 6 lf 1010,5 hPa 0,0 l/m 0 min 2 min 83 W/m 8,4 km/h (2 Bft) 97,87 %
03.04.2016 09:36 11,9 C 11,1 C 10,0 C 91 % 7 lf 1010,5 hPa 0,0 l/m 0 min 2 min 87 W/m 8,4 km/h (2 Bft) 93,62 %
03.04.2016 09:38 11,9 C 11,7 C 10,0 C 91 % 6 lf 1010,5 hPa 0,0 l/m 0 min 2 min 94 W/m 6,3 km/h (2 Bft) 89,36 %
03.04.2016 09:40 11,9 C 11,7 C 10,0 C 91 % 4 lf 1010,6 hPa 0,0 l/m 0 min 2 min 101 W/m 8,4 km/h (2 Bft) 93,48 %
03.04.2016 09:42 12,0 C 11,7 C 10,0 C 92 % 4 lf 1010,6 hPa 0,0 l/m 0 min 2 min 107 W/m 6,3 km/h (2 Bft) 95,74 %
03.04.2016 09:44 12,0 C 11,7 C 10,0 C 92 % 3 lf 1010,6 hPa 0,0 l/m 0 min 2 min 113 W/m 8,4 km/h (2 Bft) 91,49 %
03.04.2016 09:46 12,0 C 11,7 C 10,6 C 92 % 1 lf 1010,6 hPa 0,0 l/m 0 min 2 min 118 W/m 8,4 km/h (2 Bft) 95,74 %
03.04.2016 09:48 12,1 C 11,7 C 10,6 C 92 % 0 lf 1010,7 hPa 0,0 l/m 0 min 2 min 121 W/m 10,5 km/h (2 Bft) 95,74 %
03.04.2016 09:50 12,1 C 11,7 C 10,6 C 92 % 0 lf 1010,6 hPa 0,0 l/m 0 min 2 min 126 W/m 14,6 km/h (3 Bft) 95,74 %
03.04.2016 09:52 12,1 C 11,7 C 10,6 C 92 % 0 lf 1010,6 hPa 0,0 l/m 0 min 2 min 131 W/m 10,5 km/h (2 Bft) 95,65 %
03.04.2016 09:54 12,1 C 11,7 C 10,6 C 92 % 0 lf 1010,7 hPa 0,0 l/m 0 min 2 min 115 W/m 8,4 km/h (2 Bft) 93,62 %
03.04.2016 09:56 12,1 C 11,7 C 10,6 C 92 % 0 lf 1010,7 hPa 0,0 l/m 0 min 2 min 92 W/m 10,5 km/h (2 Bft) 93,62 %
03.04.2016 09:58 12,1 C 11,7 C 10,6 C 92 % 2 lf 1010,7 hPa 0,0 l/m 0 min 2 min 81 W/m 10,5 km/h (2 Bft) 91,49 %
03.04.2016 10:00 12,2 C 11,7 C 10,6 C 92 % 1 lf 1010,7 hPa 0,0 l/m 0 min 2 min 76 W/m 8,4 km/h (2 Bft) 97,87 %
03.04.2016 10:02 12,2 C 11,7 C 10,6 C 92 % 2 lf 1010,7 hPa 0,0 l/m 0 min 2 min 81 W/m 14,6 km/h (3 Bft) 95,74 %
03.04.2016 10:04 12,2 C 11,7 C 10,6 C 92 % 1 lf 1010,7 hPa 0,0 l/m 0 min 2 min 83 W/m 8,4 km/h (2 Bft) 97,83 %
03.04.2016 10:06 12,2 C 11,7 C 10,6 C 92 % 0 lf 1010,7 hPa 0,0 l/m 0 min 2 min 81 W/m 10,5 km/h (2 Bft) 97,87 %
03.04.2016 10:08 12,2 C 11,7 C 10,6 C 92 % 0 lf 1010,7 hPa 0,0 l/m 0 min 2 min 78 W/m 12,6 km/h (3 Bft) 95,74 %
03.04.2016 10:10 12,2 C 11,7 C 10,6 C 92 % 0 lf 1010,7 hPa 0,0 l/m 0 min 2 min 74 W/m 8,4 km/h (2 Bft) 97,87 %
03.04.2016 10:12 12,2 C 11,7 C 10,6 C 92 % 0 lf 1010,7 hPa 0,0 l/m 0 min 2 min 72 W/m 8,4 km/h (2 Bft) 93,62 %
03.04.2016 10:14 12,2 C 11,7 C 10,6 C 93 % 0 lf 1010,7 hPa 0,0 l/m 0 min 0 min 69 W/m 8,4 km/h (2 Bft) 95,74 %
03.04.2016 10:16 12,2 C 11,7 C 10,6 C 93 % 0 lf 1010,7 hPa 0,0 l/m 0 min 0 min 64 W/m 16,7 km/h (3 Bft) 95,65 %
03.04.2016 10:18 12,2 C 11,7 C 10,0 C 93 % 0 lf 1010,7 hPa 0,0 l/m 0 min 0 min 61 W/m 8,4 km/h (2 Bft) 95,74 %
03.04.2016 10:20 12,2 C 11,7 C 10,0 C 93 % 0 lf 1010,7 hPa 0,0 l/m 0 min 2 min 62 W/m 10,5 km/h (2 Bft) 95,74 %
03.04.2016 10:22 12,2 C 11,7 C 10,0 C 92 % 1 lf 1010,7 hPa 0,0 l/m 0 min 0 min 64 W/m 14,6 km/h (3 Bft) 97,87 %
03.04.2016 10:24 12,2 C 11,7 C 10,0 C 92 % 0 lf 1010,7 hPa 0,0 l/m 0 min 2 min 60 W/m 8,4 km/h (2 Bft) 95,74 %
03.04.2016 10:26 12,2 C 11,7 C 10,0 C 92 % 0 lf 1010,7 hPa 0,0 l/m 0 min 2 min 54 W/m 10,5 km/h (2 Bft) 95,74 %
03.04.2016 10:28 12,1 C 11,7 C 10,0 C 92 % 1 lf 1010,7 hPa 0,0 l/m 0 min 2 min 56 W/m 8,4 km/h (2 Bft) 100,00 %
03.04.2016 10:30 12,1 C 11,1 C 10,0 C 92 % 0 lf 1010,7 hPa 0,0 l/m 0 min 0 min 53 W/m 12,6 km/h (3 Bft) 93,62 %
03.04.2016 10:32 12,1 C 11,1 C 10,0 C 92 % 0 lf 1010,7 hPa 0,2 l/m 0 min 2 min 47 W/m 10,5 km/h (2 Bft) 95,74 %
03.04.2016 10:34 12,1 C 11,1 C 10,0 C 92 % 0 lf 1010,7 hPa 0,0 l/m 0 min 0 min 40 W/m 12,6 km/h (3 Bft) 93,62 %
03.04.2016 10:36 12,0 C 11,1 C 10,0 C 92 % 0 lf 1010,7 hPa 0,0 l/m 0 min 0 min 36 W/m 10,5 km/h (2 Bft) 91,49 %
03.04.2016 10:38 12,0 C 11,1 C 10,0 C 92 % 0 lf 1010,7 hPa 0,0 l/m 0 min 0 min 33 W/m 10,5 km/h (2 Bft) 95,65 %
03.04.2016 10:40 11,9 C 11,1 C 10,0 C 92 % 0 lf 1010,7 hPa 0,0 l/m 0 min 0 min 33 W/m 12,6 km/h (3 Bft) 93,62 %
03.04.2016 10:42 11,9 C 11,1 C 9,4 C 92 % 0 lf 1010,7 hPa 0,0 l/m 0 min 0 min 30 W/m 8,4 km/h (2 Bft) 93,62 %
03.04.2016 10:44 11,9 C 11,1 C 9,4 C 91 % 0 lf 1010,7 hPa 0,0 l/m 0 min 0 min 27 W/m 12,6 km/h (3 Bft) 93,62 %
03.04.2016 10:46 11,9 C 11,1 C 9,4 C 91 % 0 lf 1010,7 hPa 0,0 l/m 0 min 0 min 25 W/m 10,5 km/h (2 Bft) 95,74 %
03.04.2016 10:48 11,9 C 11,1 C 9,4 C 91 % 0 lf 1010,7 hPa 0,0 l/m 0 min 0 min 24 W/m 10,5 km/h (2 Bft) 95,74 %
03.04.2016 10:50 11,9 C 11,1 C 9,4 C 91 % 0 lf 1010,7 hPa 0,0 l/m 0 min 0 min 25 W/m 10,5 km/h (2 Bft) 95,65 %
03.04.2016 10:52 11,9 C 11,1 C 9,4 C 91 % 0 lf 1010,7 hPa 0,0 l/m 0 min 0 min 27 W/m 12,6 km/h (3 Bft) 91,49 %
03.04.2016 10:54 11,8 C 11,1 C 9,4 C 91 % 0 lf 1010,7 hPa 0,0 l/m 0 min 0 min 32 W/m 10,5 km/h (2 Bft) 93,62 %
03.04.2016 10:56 11,8 C 11,7 C 9,4 C 91 % 0 lf 1010,6 hPa 0,0 l/m 0 min 0 min 40 W/m 8,4 km/h (2 Bft) 95,74 %
03.04.2016 10:58 11,8 C 11,7 C 9,4 C 91 % 0 lf 1010,7 hPa 0,0 l/m 0 min 0 min 49 W/m 6,3 km/h (2 Bft) 95,74 %
03.04.2016 11:00 11,8 C 11,7 C 10,0 C 91 % 0 lf 1010,7 hPa 0,0 l/m 0 min 0 min 58 W/m 6,3 km/h (2 Bft) 95,74 %
03.04.2016 11:02 11,8 C 12,2 C 10,0 C 91 % 0 lf 1010,7 hPa 0,0 l/m 0 min 0 min 69 W/m 8,4 km/h (2 Bft) 95,65 %
03.04.2016 11:04 11,8 C 12,2 C 10,0 C 91 % 0 lf 1010,6 hPa 0,0 l/m 0 min 0 min 126 W/m 6,3 km/h (2 Bft) 95,74 %
03.04.2016 11:06 11,9 C 12,8 C 10,0 C 91 % 0 lf 1010,5 hPa 0,0 l/m 0 min 0 min 160 W/m 10,5 km/h (2 Bft) 93,62 %
03.04.2016 11:08 11,9 C 13,3 C 10,6 C 91 % 0 lf 1010,3 hPa 0,0 l/m 0 min 0 min 165 W/m 8,4 km/h (2 Bft) 95,74 %
03.04.2016 11:10 11,9 C 13,9 C 10,6 C 91 % 0 lf 1010,2 hPa 0,0 l/m 0 min 0 min 202 W/m 6,3 km/h (2 Bft) 93,62 %
03.04.2016 11:12 11,9 C 15,6 C 11,7 C 91 % 0 lf 1010,2 hPa 0,0 l/m 0 min 0 min 248 W/m 10,5 km/h (2 Bft) 93,62 %
03.04.2016 11:14 12,1 C 16,1 C 12,2 C 92 % 0 lf 1010,2 hPa 0,0 l/m 2 min 0 min 351 W/m 14,6 km/h (3 Bft) 95,65 %
03.04.2016 11:16 12,1 C 16,1 C 12,2 C 92 % 0 lf 1010,2 hPa 0,0 l/m 0 min 0 min 269 W/m 12,6 km/h (3 Bft) 93,62 %
03.04.2016 11:18 12,2 C 16,7 C 12,8 C 92 % 0 lf 1010,3 hPa 0,0 l/m 2 min 0 min 333 W/m 12,6 km/h (3 Bft) 97,87 %
03.04.2016 11:20 12,3 C 17,8 C 13,9 C 92 % 0 lf 1010,4 hPa 0,0 l/m 2 min 0 min 417 W/m 8,4 km/h (2 Bft) 91,49 %
03.04.2016 11:22 12,4 C 20,0 C 15,0 C 92 % 0 lf 1010,5 hPa 0,0 l/m 2 min 0 min 609 W/m 8,4 km/h (2 Bft) 95,74 %
03.04.2016 11:24 12,6 C 19,4 C 15,0 C 93 % 0 lf 1010,5 hPa 0,0 l/m 2 min 0 min 586 W/m 12,6 km/h (3 Bft) 97,87 %
03.04.2016 11:26 12,8 C 19,4 C 15,6 C 93 % 0 lf 1010,5 hPa 0,0 l/m 2 min 0 min 583 W/m 12,6 km/h (3 Bft) 93,48 %
03.04.2016 11:28 12,9 C 19,4 C 15,6 C 92 % 0 lf 1010,5 hPa 0,0 l/m 2 min 0 min 557 W/m 14,6 km/h (3 Bft) 93,62 %
03.04.2016 11:30 13,1 C 18,9 C 15,6 C 92 % 0 lf 1010,6 hPa 0,0 l/m 2 min 0 min 573 W/m 12,6 km/h (3 Bft) 93,62 %
03.04.2016 11:32 13,2 C 18,9 C 15,0 C 92 % 0 lf 1010,6 hPa 0,0 l/m 2 min 0 min 494 W/m 14,6 km/h (3 Bft) 95,74 %
03.04.2016 11:34 13,4 C 18,9 C 15,0 C 91 % 0 lf 1010,5 hPa 0,0 l/m 2 min 0 min 329 W/m 18,8 km/h (3 Bft) 95,74 %
03.04.2016 11:36 13,6 C 19,4 C 15,0 C 91 % 0 lf 1010,4 hPa 0,0 l/m 2 min 0 min 413 W/m 16,7 km/h (3 Bft) 93,62 %
03.04.2016 11:38 13,7 C 21,1 C 16,1 C 91 % 0 lf 1010,3 hPa 0,0 l/m 2 min 0 min 492 W/m 18,8 km/h (3 Bft) 97,83 %
03.04.2016 11:40 13,9 C 22,2 C 16,1 C 90 % 0 lf 1010,2 hPa 0,0 l/m 2 min 0 min 528 W/m 16,7 km/h (3 Bft) 95,74 %
03.04.2016 11:42 14,1 C 22,8 C 16,7 C 90 % 0 lf 1010,1 hPa 0,0 l/m 2 min 0 min 554 W/m 12,6 km/h (3 Bft) 97,87 %
03.04.2016 11:44 14,2 C 23,3 C 17,2 C 90 % 0 lf 1010,2 hPa 0,0 l/m 2 min 0 min 601 W/m 16,7 km/h (3 Bft) 97,87 %
03.04.2016 11:46 14,4 C 22,8 C 17,8 C 89 % 0 lf 1010,1 hPa 0,0 l/m 2 min 0 min 632 W/m 12,6 km/h (3 Bft) 95,74 %
03.04.2016 11:48 14,6 C 22,8 C 17,8 C 88 % 0 lf 1010,2 hPa 0,0 l/m 2 min 0 min 676 W/m 14,6 km/h (3 Bft) 95,74 %
03.04.2016 11:50 14,8 C 22,2 C 18,3 C 88 % 0 lf 1010,2 hPa 0,0 l/m 2 min 0 min 679 W/m 16,7 km/h (3 Bft) 93,48 %
03.04.2016 11:52 15,0 C 22,8 C 19,4 C 87 % 0 lf 1010,2 hPa 0,0 l/m 2 min 0 min 660 W/m 16,7 km/h (3 Bft) 95,74 %
03.04.2016 11:54 15,2 C 22,2 C 20,6 C 86 % 0 lf 1010,1 hPa 0,0 l/m 2 min 0 min 553 W/m 14,6 km/h (3 Bft) 97,87 %
03.04.2016 11:56 15,4 C 23,3 C 20,6 C 85 % 0 lf 1010,2 hPa 0,0 l/m 2 min 0 min 562 W/m 16,7 km/h (3 Bft) 100,00 %
03.04.2016 11:58 15,6 C 23,9 C 21,7 C 85 % 0 lf 1010,1 hPa 0,0 l/m 2 min 0 min 647 W/m 6,3 km/h (2 Bft) 97,87 %
03.04.2016 12:00 15,8 C 23,3 C 22,2 C 84 % 0 lf 1010,2 hPa 0,0 l/m 2 min 0 min 658 W/m 14,6 km/h (3 Bft) 97,83 %
03.04.2016 12:02 15,9 C 22,8 C 21,7 C 84 % 0 lf 1010,2 hPa 0,0 l/m 2 min 0 min 635 W/m 12,6 km/h (3 Bft) 100,00 %
03.04.2016 12:04 16,1 C 21,1 C 21,1 C 82 % 0 lf 1010,2 hPa 0,0 l/m 2 min 0 min 628 W/m 14,6 km/h (3 Bft) 100,00 %
03.04.2016 12:06 16,2 C 22,2 C 21,1 C 81 % 0 lf 1010,2 hPa 0,0 l/m 2 min 0 min 610 W/m 14,6 km/h (3 Bft) 100,00 %
03.04.2016 12:08 16,3 C 21,7 C 21,1 C 80 % 0 lf 1010,1 hPa 0,0 l/m 2 min 0 min 614 W/m 14,6 km/h (3 Bft) 97,14 %
03.04.2016 12:10 16,4 C 22,2 C 21,7 C 80 % 0 lf 1010,2 hPa 0,0 l/m 2 min 0 min 643 W/m 16,7 km/h (3 Bft) 100,00 %
03.04.2016 12:12 16,6 C 22,8 C 21,7 C 80 % 0 lf 1010,2 hPa 0,0 l/m 2 min 0 min 670 W/m 16,7 km/h (3 Bft) 91,49 %
03.04.2016 12:14 16,7 C 23,9 C 21,7 C 80 % 0 lf 1010,2 hPa 0,0 l/m 2 min 0 min 618 W/m 10,5 km/h (2 Bft) 100,00 %
03.04.2016 12:16 16,8 C 24,4 C 22,2 C 80 % 0 lf 1010,1 hPa 0,0 l/m 2 min 0 min 657 W/m 12,6 km/h (3 Bft) 100,00 %
03.04.2016 12:18 16,9 C 23,3 C 22,2 C 79 % 0 lf 1010,1 hPa 0,0 l/m 2 min 0 min 717 W/m 14,6 km/h (3 Bft) 97,87 %
03.04.2016 12:20 17,1 C 24,4 C 22,8 C 79 % 0 lf 1010,1 hPa 0,0 l/m 2 min 0 min 651 W/m 20,9 km/h (4 Bft) 100,00 %
03.04.2016 12:22 17,2 C 23,9 C 22,2 C 78 % 0 lf 1010,1 hPa 0,0 l/m 2 min 0 min 612 W/m 16,7 km/h (3 Bft) 100,00 %
03.04.2016 12:24 17,3 C 22,2 C 21,7 C 76 % 0 lf 1010,1 hPa 0,0 l/m 2 min 0 min 660 W/m 14,6 km/h (3 Bft) 100,00 %
03.04.2016 12:26 17,3 C 22,8 C 21,7 C 76 % 0 lf 1010,0 hPa 0,0 l/m 2 min 0 min 669 W/m 16,7 km/h (3 Bft) 100,00 %
03.04.2016 12:28 17,4 C 22,8 C 21,7 C 77 % 0 lf 1010,1 hPa 0,0 l/m 2 min 0 min 599 W/m 23,0 km/h (4 Bft) 95,65 %
03.04.2016 12:30 17,5 C 22,2 C 21,1 C 76 % 0 lf 1010,1 hPa 0,0 l/m 2 min 0 min 548 W/m 16,7 km/h (3 Bft) 100,00 %
03.04.2016 12:32 17,6 C 22,8 C 21,1 C 75 % 0 lf 1010,1 hPa 0,0 l/m 2 min 0 min 568 W/m 16,7 km/h (3 Bft) 95,74 %
03.04.2016 12:34 17,6 C 21,7 C 20,6 C 75 % 0 lf 1010,2 hPa 0,0 l/m 2 min 0 min 594 W/m 16,7 km/h (3 Bft) 97,87 %
03.04.2016 12:36 17,7 C 21,7 C 20,0 C 74 % 0 lf 1010,2 hPa 0,0 l/m 2 min 0 min 594 W/m 16,7 km/h (3 Bft) 95,74 %
03.04.2016 12:38 17,7 C 23,3 C 21,1 C 75 % 0 lf 1010,1 hPa 0,0 l/m 2 min 0 min 670 W/m 16,7 km/h (3 Bft) 95,74 %
03.04.2016 12:40 17,7 C 22,2 C 20,6 C 75 % 0 lf 1010,1 hPa 0,0 l/m 2 min 0 min 673 W/m 14,6 km/h (3 Bft) 98,28 %
03.04.2016 12:42 17,8 C 22,8 C 21,1 C 76 % 0 lf 1010,1 hPa 0,0 l/m 2 min 0 min 723 W/m 20,9 km/h (4 Bft) 97,14 %
03.04.2016 12:44 17,8 C 20,6 C 20,0 C 74 % 0 lf 1010,1 hPa 0,0 l/m 2 min 0 min 493 W/m 16,7 km/h (3 Bft) 91,53 %
03.04.2016 12:46 17,8 C 20,6 C 19,4 C 74 % 0 lf 1010,0 hPa 0,0 l/m 0 min 0 min 324 W/m 14,6 km/h (3 Bft) 97,87 %
03.04.2016 12:48 17,9 C 21,1 C 20,0 C 74 % 0 lf 1010,0 hPa 0,0 l/m 2 min 0 min 503 W/m 14,6 km/h (3 Bft) 97,14 %
03.04.2016 12:50 17,9 C 22,8 C 20,6 C 74 % 0 lf 1010,0 hPa 0,0 l/m 2 min 0 min 536 W/m 16,7 km/h (3 Bft) 94,83 %
03.04.2016 12:52 17,9 C 22,2 C 21,1 C 74 % 0 lf 1010,0 hPa 0,0 l/m 2 min 0 min 676 W/m 18,8 km/h (3 Bft) 100,00 %
03.04.2016 12:54 17,9 C 20,0 C 19,4 C 74 % 0 lf 1010,0 hPa 0,0 l/m 2 min 0 min 517 W/m 16,7 km/h (3 Bft) 95,74 %
03.04.2016 12:56 17,9 C 20,6 C 18,9 C 74 % 0 lf 1009,9 hPa 0,0 l/m 2 min 0 min 378 W/m 20,9 km/h (4 Bft) 93,22 %
03.04.2016 12:58 17,9 C 22,2 C 20,0 C 74 % 0 lf 1009,9 hPa 0,0 l/m 2 min 0 min 485 W/m 20,9 km/h (4 Bft) 97,14 %
03.04.2016 13:00 17,9 C 24,4 C 20,6 C 75 % 0 lf 1009,8 hPa 0,0 l/m 2 min 0 min 704 W/m 14,6 km/h (3 Bft) 97,87 %
03.04.2016 13:02 18,1 C 25,0 C 21,1 C 76 % 0 lf 1009,8 hPa 0,0 l/m 2 min 0 min 716 W/m 20,9 km/h (4 Bft) 97,83 %
03.04.2016 13:04 18,1 C 22,2 C 20,6 C 74 % 0 lf 1009,8 hPa 0,0 l/m 2 min 0 min 711 W/m 18,8 km/h (3 Bft) 98,31 %
03.04.2016 13:06 18,1 C 22,8 C 20,6 C 74 % 0 lf 1009,8 hPa 0,0 l/m 2 min 0 min 719 W/m 16,7 km/h (3 Bft) 94,29 %
03.04.2016 13:08 18,2 C 24,4 C 20,6 C 73 % 0 lf 1009,8 hPa 0,0 l/m 2 min 0 min 715 W/m 18,8 km/h (3 Bft) 97,87 %
03.04.2016 13:10 18,2 C 23,3 C 20,0 C 73 % 0 lf 1009,7 hPa 0,0 l/m 2 min 0 min 732 W/m 23,0 km/h (4 Bft) 95,74 %
03.04.2016 13:12 18,3 C 25,0 C 19,4 C 73 % 0 lf 1009,8 hPa 0,0 l/m 2 min 0 min 758 W/m 20,9 km/h (4 Bft) 95,74 %
03.04.2016 13:14 18,4 C 24,4 C 19,4 C 74 % 0 lf 1009,7 hPa 0,0 l/m 2 min 0 min 707 W/m 20,9 km/h (4 Bft) 95,65 %
03.04.2016 13:16 18,6 C 23,3 C 19,4 C 72 % 0 lf 1009,8 hPa 0,0 l/m 2 min 0 min 675 W/m 23,0 km/h (4 Bft) 95,74 %
03.04.2016 13:18 18,6 C 23,3 C 18,9 C 72 % 0 lf 1009,7 hPa 0,0 l/m 2 min 0 min 715 W/m 23,0 km/h (4 Bft) 97,87 %
03.04.2016 13:20 18,7 C 23,3 C 18,9 C 71 % 0 lf 1009,6 hPa 0,0 l/m 2 min 0 min 762 W/m 18,8 km/h (3 Bft) 96,61 %
03.04.2016 13:22 18,7 C 22,8 C 18,3 C 71 % 0 lf 1009,6 hPa 0,0 l/m 2 min 0 min 748 W/m 23,0 km/h (4 Bft) 100,00 %
03.04.2016 13:24 18,7 C 22,8 C 18,3 C 71 % 0 lf 1009,5 hPa 0,0 l/m 2 min 0 min 741 W/m 20,9 km/h (4 Bft) 100,00 %
03.04.2016 13:26 18,8 C 23,9 C 18,3 C 72 % 0 lf 1009,5 hPa 0,0 l/m 2 min 0 min 729 W/m 18,8 km/h (3 Bft) 95,65 %
03.04.2016 13:28 18,9 C 26,1 C 18,9 C 73 % 0 lf 1009,5 hPa 0,0 l/m 2 min 0 min 728 W/m 12,6 km/h (3 Bft) 95,74 %
03.04.2016 13:30 18,9 C 25,0 C 18,9 C 72 % 0 lf 1009,5 hPa 0,0 l/m 2 min 0 min 774 W/m 18,8 km/h (3 Bft) 100,00 %
03.04.2016 13:32 19,1 C 23,9 C 18,9 C 71 % 0 lf 1009,4 hPa 0,0 l/m 2 min 0 min 602 W/m 18,8 km/h (3 Bft) 95,74 %
03.04.2016 13:34 19,1 C 23,9 C 18,9 C 71 % 0 lf 1009,4 hPa 0,0 l/m 2 min 0 min 554 W/m 18,8 km/h (3 Bft) 93,62 %
03.04.2016 13:36 19,2 C 23,9 C 18,3 C 72 % 0 lf 1009,5 hPa 0,0 l/m 2 min 0 min 538 W/m 16,7 km/h (3 Bft) 97,87 %
03.04.2016 13:38 19,2 C 22,2 C 18,3 C 71 % 0 lf 1009,4 hPa 0,0 l/m 2 min 0 min 469 W/m 18,8 km/h (3 Bft) 93,48 %
03.04.2016 13:40 19,2 C 20,0 C 17,8 C 69 % 0 lf 1009,5 hPa 0,0 l/m 0 min 0 min 280 W/m 18,8 km/h (3 Bft) 95,74 %
03.04.2016 13:42 19,2 C 20,6 C 17,8 C 69 % 0 lf 1009,5 hPa 0,0 l/m 0 min 0 min 291 W/m 14,6 km/h (3 Bft) 91,49 %
03.04.2016 13:44 19,1 C 20,6 C 17,8 C 69 % 0 lf 1009,5 hPa 0,0 l/m 2 min 0 min 347 W/m 20,9 km/h (4 Bft) 93,62 %
03.04.2016 13:46 19,1 C 21,1 C 18,3 C 70 % 0 lf 1009,5 hPa 0,0 l/m 2 min 0 min 455 W/m 18,8 km/h (3 Bft) 89,66 %
03.04.2016 13:48 19,0 C 22,8 C 18,3 C 70 % 0 lf 1009,5 hPa 0,0 l/m 2 min 0 min 480 W/m 12,6 km/h (3 Bft) 94,44 %
03.04.2016 13:50 19,0 C 22,2 C 18,9 C 71 % 0 lf 1009,5 hPa 0,0 l/m 2 min 0 min 419 W/m 20,9 km/h (4 Bft) 93,10 %
03.04.2016 13:52 19,1 C 23,3 C 18,9 C 70 % 0 lf 1009,4 hPa 0,0 l/m 2 min 0 min 642 W/m 18,8 km/h (3 Bft) 85,71 %
03.04.2016 13:54 19,1 C 21,7 C 18,9 C 70 % 0 lf 1009,4 hPa 0,0 l/m 2 min 0 min 419 W/m 16,7 km/h (3 Bft) 91,49 %
03.04.2016 13:56 19,1 C 22,2 C 18,9 C 71 % 0 lf 1009,4 hPa 0,0 l/m 2 min 0 min 452 W/m 14,6 km/h (3 Bft) 93,62 %
03.04.2016 13:58 19,1 C 23,9 C 19,4 C 71 % 0 lf 1009,4 hPa 0,0 l/m 2 min 0 min 454 W/m 12,6 km/h (3 Bft) 91,49 %
03.04.2016 14:00 19,2 C 25,0 C 19,4 C 71 % 0 lf 1009,4 hPa 0,0 l/m 2 min 0 min 454 W/m 12,6 km/h (3 Bft) 93,48 %
03.04.2016 14:02 19,2 C 23,3 C 19,4 C 70 % 0 lf 1009,4 hPa 0,0 l/m 2 min 0 min 606 W/m 23,0 km/h (4 Bft) 91,49 %
03.04.2016 14:04 19,3 C 22,8 C 19,4 C 70 % 0 lf 1009,3 hPa 0,0 l/m 2 min 0 min 663 W/m 23,0 km/h (4 Bft) 93,62 %
03.04.2016 14:06 19,3 C 22,8 C 18,9 C 70 % 0 lf 1009,3 hPa 0,0 l/m 2 min 0 min 596 W/m 14,6 km/h (3 Bft) 91,49 %
03.04.2016 14:08 19,3 C 21,7 C 18,9 C 70 % 0 lf 1009,3 hPa 0,0 l/m 0 min 0 min 252 W/m 14,6 km/h (3 Bft) 95,74 %
03.04.2016 14:10 19,4 C 21,1 C 18,9 C 69 % 0 lf 1009,3 hPa 0,0 l/m 0 min 0 min 297 W/m 20,9 km/h (4 Bft) 93,62 %
03.04.2016 14:12 19,4 C 21,7 C 18,9 C 69 % 0 lf 1009,2 hPa 0,0 l/m 2 min 0 min 371 W/m 16,7 km/h (3 Bft) 93,62 %
03.04.2016 14:14 19,4 C 20,6 C 18,9 C 69 % 0 lf 1009,2 hPa 0,0 l/m 2 min 0 min 346 W/m 20,9 km/h (4 Bft) 89,13 %
03.04.2016 14:16 19,3 C 20,6 C 18,9 C 69 % 0 lf 1009,3 hPa 0,0 l/m 0 min 0 min 312 W/m 23,0 km/h (4 Bft) 93,62 %
03.04.2016 14:18 19,3 C 21,1 C 18,9 C 70 % 0 lf 1009,3 hPa 0,0 l/m 0 min 0 min 312 W/m 12,6 km/h (3 Bft) 89,83 %
03.04.2016 14:20 19,3 C 21,1 C 18,9 C 70 % 0 lf 1009,2 hPa 0,0 l/m 0 min 0 min 320 W/m 18,8 km/h (3 Bft) 95,74 %
03.04.2016 14:22 19,3 C 20,6 C 18,9 C 69 % 0 lf 1009,2 hPa 0,0 l/m 2 min 0 min 347 W/m 18,8 km/h (3 Bft) 94,29 %
03.04.2016 14:24 19,3 C 21,1 C 18,9 C 69 % 0 lf 1009,2 hPa 0,0 l/m 2 min 0 min 466 W/m 20,9 km/h (4 Bft) 91,30 %
03.04.2016 14:26 19,3 C 21,1 C 18,9 C 69 % 0 lf 1009,2 hPa 0,0 l/m 2 min 0 min 396 W/m 16,7 km/h (3 Bft) 97,87 %
03.04.2016 14:28 19,3 C 21,7 C 18,9 C 69 % 0 lf 1009,2 hPa 0,0 l/m 2 min 0 min 389 W/m 18,8 km/h (3 Bft) 95,74 %
03.04.2016 14:30 19,3 C 22,2 C 18,9 C 69 % 0 lf 1009,1 hPa 0,0 l/m 2 min 0 min 441 W/m 16,7 km/h (3 Bft) 95,74 %
03.04.2016 14:32 19,3 C 22,8 C 19,4 C 70 % 0 lf 1009,1 hPa 0,0 l/m 2 min 0 min 455 W/m 14,6 km/h (3 Bft) 97,87 %
03.04.2016 14:34 19,3 C 23,3 C 19,4 C 69 % 0 lf 1009,0 hPa 0,0 l/m 2 min 0 min 533 W/m 27,2 km/h (4 Bft) 95,74 %
03.04.2016 14:36 19,3 C 24,4 C 18,9 C 70 % 0 lf 1009,0 hPa 0,0 l/m 2 min 0 min 582 W/m 16,7 km/h (3 Bft) 98,28 %
03.04.2016 14:38 19,4 C 25,0 C 18,9 C 70 % 0 lf 1009,0 hPa 0,0 l/m 2 min 0 min 639 W/m 16,7 km/h (3 Bft) 97,14 %
03.04.2016 14:40 19,5 C 23,3 C 18,9 C 69 % 0 lf 1009,0 hPa 0,0 l/m 2 min 0 min 554 W/m 18,8 km/h (3 Bft) 100,00 %
03.04.2016 14:42 19,6 C 22,8 C 18,9 C 69 % 0 lf 1009,0 hPa 0,0 l/m 2 min 0 min 512 W/m 20,9 km/h (4 Bft) 95,74 %
03.04.2016 14:44 19,6 C 24,4 C 18,9 C 69 % 0 lf 1009,1 hPa 0,0 l/m 2 min 0 min 533 W/m 16,7 km/h (3 Bft) 97,87 %
03.04.2016 14:46 19,6 C 25,0 C 18,9 C 69 % 0 lf 1009,1 hPa 0,0 l/m 2 min 0 min 589 W/m 16,7 km/h (3 Bft) 97,87 %
03.04.2016 14:48 19,7 C 24,4 C 18,9 C 69 % 0 lf 1009,1 hPa 0,0 l/m 2 min 0 min 626 W/m 12,6 km/h (3 Bft) 100,00 %
03.04.2016 14:50 19,7 C 23,9 C 19,4 C 69 % 0 lf 1009,0 hPa 0,0 l/m 2 min 0 min 632 W/m 12,6 km/h (3 Bft) 97,87 %
03.04.2016 14:52 19,8 C 23,9 C 19,4 C 68 % 0 lf 1009,0 hPa 0,0 l/m 2 min 0 min 637 W/m 14,6 km/h (3 Bft) 97,14 %
03.04.2016 14:54 19,8 C 24,4 C 19,4 C 68 % 0 lf 1009,0 hPa 0,0 l/m 2 min 0 min 637 W/m 12,6 km/h (3 Bft) 100,00 %
03.04.2016 14:56 19,9 C 23,9 C 19,4 C 68 % 0 lf 1008,9 hPa 0,0 l/m 2 min 0 min 670 W/m 25,1 km/h (4 Bft) 100,00 %
03.04.2016 14:58 19,9 C 23,9 C 19,4 C 68 % 0 lf 1008,9 hPa 0,0 l/m 2 min 0 min 653 W/m 20,9 km/h (4 Bft) 95,74 %
03.04.2016 15:00 19,9 C 25,0 C 19,4 C 68 % 0 lf 1008,8 hPa 0,0 l/m 2 min 0 min 680 W/m 14,6 km/h (3 Bft) 97,83 %
03.04.2016 15:02 20,0 C 24,4 C 19,4 C 67 % 0 lf 1008,8 hPa 0,0 l/m 2 min 0 min 654 W/m 14,6 km/h (3 Bft) 100,00 %
03.04.2016 15:04 20,0 C 24,4 C 19,4 C 67 % 0 lf 1008,8 hPa 0,0 l/m 2 min 0 min 671 W/m 16,7 km/h (3 Bft) 100,00 %
03.04.2016 15:06 20,1 C 23,9 C 19,4 C 68 % 0 lf 1008,8 hPa 0,0 l/m 2 min 0 min 651 W/m 14,6 km/h (3 Bft) 100,00 %
03.04.2016 15:08 20,1 C 23,3 C 19,4 C 67 % 0 lf 1008,7 hPa 0,0 l/m 2 min 0 min 674 W/m 20,9 km/h (4 Bft) 100,00 %
03.04.2016 15:10 20,1 C 26,1 C 20,0 C 68 % 0 lf 1008,7 hPa 0,0 l/m 2 min 0 min 717 W/m 8,4 km/h (2 Bft) 100,00 %
03.04.2016 15:12 20,2 C 27,2 C 20,6 C 69 % 0 lf 1008,7 hPa 0,0 l/m 2 min 0 min 777 W/m 12,6 km/h (3 Bft) 100,00 %
03.04.2016 15:14 20,3 C 26,1 C 20,6 C 68 % 0 lf 1008,8 hPa 0,0 l/m 2 min 0 min 424 W/m 14,6 km/h (3 Bft) 94,92 %
03.04.2016 15:16 20,4 C 23,9 C 20,0 C 68 % 0 lf 1008,8 hPa 0,0 l/m 0 min 0 min 314 W/m 12,6 km/h (3 Bft) 97,14 %
03.04.2016 15:18 20,4 C 23,3 C 20,0 C 67 % 0 lf 1008,7 hPa 0,0 l/m 0 min 0 min 225 W/m 12,6 km/h (3 Bft) 96,49 %
03.04.2016 15:20 20,4 C 22,8 C 19,4 C 67 % 0 lf 1008,8 hPa 0,0 l/m 0 min 0 min 213 W/m 10,5 km/h (2 Bft) 95,74 %
03.04.2016 15:22 20,4 C 22,2 C 18,9 C 67 % 0 lf 1008,7 hPa 0,0 l/m 0 min 0 min 192 W/m 12,6 km/h (3 Bft) 97,83 %
03.04.2016 15:24 20,4 C 21,1 C 18,9 C 66 % 0 lf 1008,8 hPa 0,0 l/m 0 min 0 min 165 W/m 12,6 km/h (3 Bft) 97,87 %
03.04.2016 15:26 20,4 C 20,6 C 18,3 C 66 % 0 lf 1008,8 hPa 0,0 l/m 0 min 0 min 156 W/m 10,5 km/h (2 Bft) 93,62 %
03.04.2016 15:28 20,4 C 21,1 C 18,3 C 66 % 0 lf 1008,7 hPa 0,0 l/m 0 min 0 min 167 W/m 8,4 km/h (2 Bft) 97,87 %
03.04.2016 15:30 20,4 C 20,0 C 18,3 C 66 % 0 lf 1008,7 hPa 0,0 l/m 0 min 0 min 158 W/m 10,5 km/h (2 Bft) 97,87 %
03.04.2016 15:32 20,3 C 20,0 C 18,3 C 66 % 0 lf 1008,7 hPa 0,0 l/m 0 min 0 min 139 W/m 10,5 km/h (2 Bft) 91,49 %
03.04.2016 15:34 20,3 C 19,4 C 18,3 C 66 % 0 lf 1008,7 hPa 0,0 l/m 0 min 0 min 122 W/m 8,4 km/h (2 Bft) 97,83 %
03.04.2016 15:36 20,2 C 19,4 C 17,8 C 66 % 0 lf 1008,7 hPa 0,0 l/m 0 min 0 min 105 W/m 10,5 km/h (2 Bft) 97,87 %
03.04.2016 15:38 20,2 C 19,4 C 17,8 C 66 % 0 lf 1008,7 hPa 0,0 l/m 0 min 0 min 111 W/m 6,3 km/h (2 Bft) 97,87 %
03.04.2016 15:40 20,1 C 19,4 C 17,8 C 66 % 0 lf 1008,6 hPa 0,0 l/m 0 min 0 min 114 W/m 6,3 km/h (2 Bft) 97,87 %
03.04.2016 15:42 20,1 C 20,0 C 17,8 C 67 % 0 lf 1008,6 hPa 0,0 l/m 0 min 0 min 121 W/m 6,3 km/h (2 Bft) 95,74 %
03.04.2016 15:44 20,0 C 20,0 C 17,8 C 67 % 0 lf 1008,6 hPa 0,0 l/m 0 min 0 min 127 W/m 8,4 km/h (2 Bft) 95,74 %
03.04.2016 15:46 19,9 C 20,0 C 17,8 C 67 % 0 lf 1008,6 hPa 0,0 l/m 0 min 0 min 136 W/m 6,3 km/h (2 Bft) 95,65 %
03.04.2016 15:48 19,9 C 19,4 C 17,8 C 67 % 0 lf 1008,6 hPa 0,0 l/m 0 min 0 min 114 W/m 6,3 km/h (2 Bft) 97,87 %
03.04.2016 15:50 19,9 C 20,0 C 17,8 C 67 % 0 lf 1008,6 hPa 0,0 l/m 0 min 0 min 107 W/m 8,4 km/h (2 Bft) 93,62 %
03.04.2016 15:52 19,8 C 20,0 C 17,8 C 67 % 0 lf 1008,6 hPa 0,0 l/m 0 min 0 min 130 W/m 6,3 km/h (2 Bft) 97,87 %
03.04.2016 15:54 19,8 C 20,6 C 17,8 C 68 % 0 lf 1008,6 hPa 0,0 l/m 0 min 0 min 170 W/m 10,5 km/h (2 Bft) 95,74 %
03.04.2016 15:56 19,7 C 21,1 C 18,3 C 68 % 0 lf 1008,6 hPa 0,0 l/m 0 min 0 min 233 W/m 6,3 km/h (2 Bft) 95,65 %
03.04.2016 15:58 19,7 C 22,2 C 18,9 C 68 % 0 lf 1008,6 hPa 0,0 l/m 2 min 0 min 342 W/m 10,5 km/h (2 Bft) 93,62 %
03.04.2016 16:00 19,7 C 23,9 C 19,4 C 68 % 0 lf 1008,6 hPa 0,0 l/m 2 min 0 min 467 W/m 14,6 km/h (3 Bft) 95,74 %
03.04.2016 16:02 19,7 C 23,9 C 20,0 C 69 % 0 lf 1008,5 hPa 0,0 l/m 2 min 0 min 450 W/m 10,5 km/h (2 Bft) 93,62 %
03.04.2016 16:04 19,8 C 25,0 C 20,0 C 69 % 0 lf 1008,5 hPa 0,0 l/m 2 min 0 min 518 W/m 10,5 km/h (2 Bft) 97,87 %
03.04.2016 16:06 19,8 C 24,4 C 20,6 C 68 % 0 lf 1008,4 hPa 0,0 l/m 2 min 0 min 662 W/m 12,6 km/h (3 Bft) 95,74 %
03.04.2016 16:08 19,9 C 23,9 C 20,0 C 67 % 0 lf 1008,4 hPa 0,0 l/m 2 min 0 min 361 W/m 10,5 km/h (2 Bft) 97,83 %
03.04.2016 16:10 19,9 C 24,4 C 20,0 C 67 % 0 lf 1008,2 hPa 0,0 l/m 0 min 0 min 253 W/m 10,5 km/h (2 Bft) 97,87 %
03.04.2016 16:12 20,1 C 25,6 C 20,0 C 67 % 0 lf 1008,2 hPa 0,0 l/m 2 min 0 min 593 W/m 14,6 km/h (3 Bft) 93,62 %
03.04.2016 16:14 20,2 C 25,0 C 19,4 C 66 % 0 lf 1008,1 hPa 0,0 l/m 0 min 0 min 249 W/m 12,6 km/h (3 Bft) 97,87 %
03.04.2016 16:16 20,2 C 23,9 C 19,4 C 66 % 0 lf 1008,1 hPa 0,0 l/m 0 min 0 min 238 W/m 10,5 km/h (2 Bft) 95,74 %
03.04.2016 16:18 20,3 C 26,1 C 19,4 C 67 % 0 lf 1008,1 hPa 0,0 l/m 2 min 0 min 419 W/m 10,5 km/h (2 Bft) 95,74 %
03.04.2016 16:20 20,4 C 27,2 C 20,0 C 66 % 0 lf 1008,1 hPa 0,0 l/m 2 min 0 min 723 W/m 12,6 km/h (3 Bft) 97,83 %
03.04.2016 16:22 20,5 C 26,7 C 20,0 C 65 % 0 lf 1008,0 hPa 0,0 l/m 2 min 0 min 770 W/m 6,3 km/h (2 Bft) 95,74 %
03.04.2016 16:24 20,6 C 25,0 C 20,0 C 64 % 0 lf 1008,1 hPa 0,0 l/m 2 min 0 min 414 W/m 6,3 km/h (2 Bft) 95,74 %
03.04.2016 16:26 20,6 C 25,0 C 20,0 C 65 % 0 lf 1008,1 hPa 0,0 l/m 2 min 0 min 444 W/m 10,5 km/h (2 Bft) 93,62 %
03.04.2016 16:28 20,7 C 25,0 C 20,0 C 65 % 0 lf 1008,0 hPa 0,0 l/m 2 min 0 min 353 W/m 6,3 km/h (2 Bft) 97,87 %
03.04.2016 16:30 20,7 C 25,0 C 20,0 C 65 % 0 lf 1008,1 hPa 0,0 l/m 2 min 0 min 305 W/m 6,3 km/h (2 Bft) 95,74 %
03.04.2016 16:32 20,8 C 25,0 C 20,0 C 65 % 0 lf 1008,0 hPa 0,0 l/m 2 min 0 min 363 W/m 8,4 km/h (2 Bft) 97,83 %
03.04.2016 16:34 20,8 C 25,0 C 20,0 C 65 % 0 lf 1008,0 hPa 0,0 l/m 2 min 0 min 383 W/m 18,8 km/h (3 Bft) 100,00 %
03.04.2016 16:36 20,9 C 26,1 C 20,6 C 64 % 0 lf 1008,0 hPa 0,0 l/m 2 min 0 min 383 W/m 18,8 km/h (3 Bft) 100,00 %
03.04.2016 16:38 20,9 C 24,4 C 20,0 C 64 % 0 lf 1008,0 hPa 0,0 l/m 2 min 0 min 596 W/m 16,7 km/h (3 Bft) 97,87 %
03.04.2016 16:40 21,0 C 24,4 C 19,4 C 63 % 0 lf 1008,0 hPa 0,0 l/m 0 min 0 min 230 W/m 8,4 km/h (2 Bft) 97,87 %
03.04.2016 16:42 20,9 C 22,8 C 19,4 C 63 % 0 lf 1007,9 hPa 0,0 l/m 0 min 0 min 229 W/m 12,6 km/h (3 Bft) 91,49 %
03.04.2016 16:44 20,9 C 22,2 C 19,4 C 63 % 0 lf 1007,9 hPa 0,0 l/m 0 min 0 min 174 W/m 8,4 km/h (2 Bft) 100,00 %
03.04.2016 16:46 20,9 C 21,7 C 18,9 C 63 % 0 lf 1007,9 hPa 0,0 l/m 0 min 0 min 181 W/m 10,5 km/h (2 Bft) 100,00 %
03.04.2016 16:48 20,9 C 21,7 C 18,9 C 63 % 0 lf 1007,9 hPa 0,0 l/m 0 min 0 min 187 W/m 23,0 km/h (4 Bft) 95,74 %
03.04.2016 16:50 20,8 C 21,1 C 18,9 C 63 % 0 lf 1007,9 hPa 0,0 l/m 0 min 0 min 172 W/m 14,6 km/h (3 Bft) 93,62 %
03.04.2016 16:52 20,8 C 20,6 C 18,9 C 63 % 0 lf 1007,8 hPa 0,0 l/m 0 min 0 min 140 W/m 8,4 km/h (2 Bft) 93,62 %
03.04.2016 16:54 20,7 C 20,6 C 18,9 C 63 % 0 lf 1007,8 hPa 0,0 l/m 0 min 0 min 123 W/m 6,3 km/h (2 Bft) 95,74 %
03.04.2016 16:56 20,7 C 20,6 C 18,9 C 64 % 0 lf 1007,8 hPa 0,0 l/m 0 min 0 min 124 W/m 8,4 km/h (2 Bft) 91,30 %
03.04.2016 16:58 20,7 C 20,6 C 18,9 C 64 % 0 lf 1007,8 hPa 0,0 l/m 0 min 0 min 127 W/m 8,4 km/h (2 Bft) 95,74 %
03.04.2016 17:00 20,6 C 20,6 C 18,3 C 64 % 0 lf 1007,8 hPa 0,0 l/m 0 min 0 min 137 W/m 14,6 km/h (3 Bft) 95,74 %
03.04.2016 17:02 20,5 C 20,6 C 18,3 C 64 % 0 lf 1007,8 hPa 0,0 l/m 0 min 0 min 136 W/m 14,6 km/h (3 Bft) 95,74 %
03.04.2016 17:04 20,4 C 20,0 C 18,3 C 64 % 0 lf 1007,8 hPa 0,0 l/m 0 min 0 min 134 W/m 10,5 km/h (2 Bft) 95,74 %
03.04.2016 17:06 20,4 C 20,0 C 18,3 C 64 % 0 lf 1007,7 hPa 0,0 l/m 0 min 0 min 129 W/m 12,6 km/h (3 Bft) 95,65 %
03.04.2016 17:08 20,3 C 20,0 C 18,3 C 63 % 0 lf 1007,7 hPa 0,0 l/m 0 min 0 min 114 W/m 10,5 km/h (2 Bft) 95,74 %
03.04.2016 17:10 20,2 C 20,0 C 18,3 C 63 % 0 lf 1007,6 hPa 0,0 l/m 0 min 0 min 105 W/m 10,5 km/h (2 Bft) 93,62 %
03.04.2016 17:12 20,2 C 20,0 C 18,3 C 63 % 0 lf 1007,6 hPa 0,0 l/m 0 min 0 min 91 W/m 10,5 km/h (2 Bft) 93,62 %
03.04.2016 17:14 20,1 C 20,0 C 18,3 C 64 % 0 lf 1007,6 hPa 0,0 l/m 0 min 0 min 72 W/m 6,3 km/h (2 Bft) 93,62 %
03.04.2016 17:16 20,1 C 19,4 C 18,3 C 63 % 0 lf 1007,6 hPa 0,0 l/m 0 min 0 min 48 W/m 8,4 km/h (2 Bft) 93,62 %
03.04.2016 17:18 20,1 C 19,4 C 17,8 C 64 % 0 lf 1007,5 hPa 0,0 l/m 0 min 0 min 40 W/m 6,3 km/h (2 Bft) 95,74 %
03.04.2016 17:20 20,0 C 19,4 C 17,8 C 64 % 0 lf 1007,5 hPa 0,0 l/m 0 min 0 min 37 W/m 6,3 km/h (2 Bft) 95,65 %
03.04.2016 17:22 20,0 C 19,4 C 17,8 C 64 % 0 lf 1007,4 hPa 0,0 l/m 0 min 0 min 35 W/m 8,4 km/h (2 Bft) 95,74 %
03.04.2016 17:24 19,9 C 19,4 C 17,8 C 64 % 0 lf 1007,5 hPa 0,0 l/m 0 min 0 min 33 W/m 8,4 km/h (2 Bft) 95,74 %
03.04.2016 17:26 19,9 C 19,4 C 17,8 C 65 % 0 lf 1007,5 hPa 0,0 l/m 0 min 0 min 32 W/m 8,4 km/h (2 Bft) 93,62 %
03.04.2016 17:28 19,9 C 19,4 C 17,2 C 65 % 0 lf 1007,4 hPa 0,0 l/m 0 min 0 min 28 W/m 10,5 km/h (2 Bft) 95,74 %
03.04.2016 17:30 19,8 C 18,9 C 17,2 C 65 % 0 lf 1007,5 hPa 0,0 l/m 0 min 0 min 23 W/m 12,6 km/h (3 Bft) 93,48 %
03.04.2016 17:32 19,8 C 18,9 C 17,2 C 65 % 0 lf 1007,5 hPa 0,0 l/m 0 min 0 min 18 W/m 10,5 km/h (2 Bft) 93,62 %
03.04.2016 17:34 19,7 C 18,9 C 17,2 C 65 % 0 lf 1007,5 hPa 0,0 l/m 0 min 0 min 16 W/m 8,4 km/h (2 Bft) 95,74 %
03.04.2016 17:36 19,7 C 18,9 C 17,2 C 66 % 0 lf 1007,5 hPa 0,0 l/m 0 min 0 min 14 W/m 10,5 km/h (2 Bft) 93,62 %
03.04.2016 17:38 19,6 C 18,9 C 17,2 C 66 % 0 lf 1007,5 hPa 0,0 l/m 0 min 0 min 12 W/m 10,5 km/h (2 Bft) 95,74 %
03.04.2016 17:40 19,6 C 18,9 C 16,7 C 66 % 0 lf 1007,5 hPa 0,0 l/m 0 min 2 min 13 W/m 10,5 km/h (2 Bft) 95,74 %
03.04.2016 17:42 19,5 C 18,9 C 16,7 C 67 % 0 lf 1007,5 hPa 0,0 l/m 0 min 2 min 15 W/m 10,5 km/h (2 Bft) 97,83 %
03.04.2016 17:44 19,4 C 18,3 C 16,1 C 67 % 0 lf 1007,5 hPa 0,0 l/m 0 min 2 min 18 W/m 12,6 km/h (3 Bft) 97,87 %
03.04.2016 17:46 19,4 C 18,3 C 16,1 C 68 % 0 lf 1007,4 hPa 0,0 l/m 0 min 2 min 29 W/m 12,6 km/h (3 Bft) 97,87 %
03.04.2016 17:48 19,3 C 18,3 C 16,1 C 68 % 0 lf 1007,2 hPa 0,0 l/m 0 min 2 min 48 W/m 8,4 km/h (2 Bft) 100,00 %
03.04.2016 17:50 19,3 C 18,9 C 16,7 C 68 % 0 lf 1007,3 hPa 0,0 l/m 0 min 2 min 61 W/m 8,4 km/h (2 Bft) 93,62 %
03.04.2016 17:52 19,3 C 18,9 C 16,7 C 68 % 0 lf 1007,2 hPa 0,0 l/m 0 min 0 min 68 W/m 8,4 km/h (2 Bft) 93,62 %
03.04.2016 17:54 19,2 C 18,9 C 16,7 C 69 % 0 lf 1007,2 hPa 0,0 l/m 0 min 0 min 82 W/m 8,4 km/h (2 Bft) 95,65 %
03.04.2016 17:56 19,2 C 19,4 C 16,7 C 69 % 0 lf 1007,3 hPa 0,0 l/m 0 min 0 min 100 W/m 12,6 km/h (3 Bft) 93,62 %
03.04.2016 17:58 19,2 C 19,4 C 17,2 C 69 % 0 lf 1007,2 hPa 0,0 l/m 0 min 0 min 121 W/m 10,5 km/h (2 Bft) 97,87 %
03.04.2016 18:00 19,2 C 20,0 C 17,2 C 69 % 0 lf 1007,2 hPa 0,0 l/m 0 min 0 min 124 W/m 8,4 km/h (2 Bft) 95,74 %
03.04.2016 18:02 19,1 C 20,0 C 17,2 C 69 % 0 lf 1007,2 hPa 0,0 l/m 0 min 0 min 140 W/m 8,4 km/h (2 Bft) 91,49 %
03.04.2016 18:04 19,1 C 20,6 C 17,2 C 70 % 0 lf 1007,1 hPa 0,0 l/m 2 min 0 min 172 W/m 8,4 km/h (2 Bft) 93,75 %
03.04.2016 18:06 19,1 C 21,1 C 17,8 C 70 % 0 lf 1007,1 hPa 0,0 l/m 2 min 0 min 214 W/m 12,6 km/h (3 Bft) 95,65 %
03.04.2016 18:08 19,2 C 21,7 C 17,8 C 69 % 0 lf 1007,1 hPa 0,0 l/m 2 min 0 min 241 W/m 8,4 km/h (2 Bft) 93,62 %
03.04.2016 18:10 19,2 C 22,8 C 18,3 C 70 % 0 lf 1007,0 hPa 0,0 l/m 2 min 0 min 300 W/m 8,4 km/h (2 Bft) 93,62 %
03.04.2016 18:12 19,2 C 22,8 C 18,3 C 70 % 0 lf 1007,1 hPa 0,0 l/m 2 min 0 min 287 W/m 10,5 km/h (2 Bft) 95,74 %
03.04.2016 18:14 19,2 C 22,8 C 18,3 C 69 % 0 lf 1007,1 hPa 0,0 l/m 2 min 0 min 278 W/m 16,7 km/h (3 Bft) 95,74 %
03.04.2016 18:16 19,3 C 21,7 C 18,3 C 69 % 0 lf 1007,1 hPa 0,0 l/m 2 min 0 min 159 W/m 16,7 km/h (3 Bft) 93,48 %
03.04.2016 18:18 19,3 C 21,7 C 17,8 C 69 % 0 lf 1007,1 hPa 0,0 l/m 2 min 0 min 196 W/m 12,6 km/h (3 Bft) 95,74 %
03.04.2016 18:20 19,3 C 21,7 C 17,8 C 68 % 0 lf 1007,2 hPa 0,0 l/m 2 min 0 min 198 W/m 12,6 km/h (3 Bft) 93,62 %
03.04.2016 18:22 19,4 C 21,7 C 17,8 C 68 % 0 lf 1007,1 hPa 0,0 l/m 2 min 0 min 189 W/m 10,5 km/h (2 Bft) 95,74 %
03.04.2016 18:24 19,4 C 21,7 C 17,8 C 68 % 0 lf 1007,1 hPa 0,0 l/m 2 min 0 min 179 W/m 6,3 km/h (2 Bft) 95,74 %
03.04.2016 18:26 19,5 C 21,7 C 17,8 C 68 % 0 lf 1007,1 hPa 0,0 l/m 2 min 0 min 186 W/m 12,6 km/h (3 Bft) 95,74 %
03.04.2016 18:28 19,6 C 21,1 C 17,8 C 68 % 0 lf 1007,1 hPa 0,0 l/m 2 min 0 min 205 W/m 14,6 km/h (3 Bft) 95,74 %
03.04.2016 18:30 19,6 C 21,1 C 17,8 C 67 % 0 lf 1007,1 hPa 0,0 l/m 2 min 0 min 204 W/m 14,6 km/h (3 Bft) 93,48 %
03.04.2016 18:32 19,6 C 20,6 C 17,8 C 67 % 0 lf 1007,0 hPa 0,0 l/m 2 min 0 min 176 W/m 14,6 km/h (3 Bft) 93,62 %
03.04.2016 18:34 19,6 C 20,6 C 17,8 C 66 % 0 lf 1007,1 hPa 0,0 l/m 2 min 0 min 132 W/m 10,5 km/h (2 Bft) 97,87 %
03.04.2016 18:36 19,7 C 20,0 C 17,8 C 67 % 0 lf 1007,1 hPa 0,0 l/m 0 min 0 min 106 W/m 12,6 km/h (3 Bft) 97,87 %
03.04.2016 18:38 19,7 C 20,0 C 17,8 C 67 % 0 lf 1007,0 hPa 0,0 l/m 2 min 0 min 145 W/m 10,5 km/h (2 Bft) 95,74 %
03.04.2016 18:40 19,7 C 20,0 C 17,8 C 66 % 0 lf 1007,0 hPa 0,0 l/m 2 min 0 min 145 W/m 12,6 km/h (3 Bft) 100,00 %
03.04.2016 18:42 19,7 C 20,0 C 17,8 C 67 % 0 lf 1007,0 hPa 0,0 l/m 2 min 0 min 128 W/m 10,5 km/h (2 Bft) 97,87 %
03.04.2016 18:44 19,7 C 20,0 C 17,8 C 66 % 0 lf 1006,8 hPa 0,0 l/m 0 min 0 min 98 W/m 12,6 km/h (3 Bft) 100,00 %
03.04.2016 18:46 19,7 C 20,0 C 17,8 C 66 % 0 lf 1006,9 hPa 0,0 l/m 0 min 0 min 90 W/m 10,5 km/h (2 Bft) 97,87 %
03.04.2016 18:48 19,7 C 20,0 C 17,8 C 66 % 0 lf 1006,9 hPa 0,0 l/m 0 min 0 min 72 W/m 10,5 km/h (2 Bft) 97,87 %
03.04.2016 18:50 19,7 C 19,4 C 17,8 C 66 % 0 lf 1006,8 hPa 0,0 l/m 0 min 0 min 64 W/m 14,6 km/h (3 Bft) 100,00 %
03.04.2016 18:52 19,7 C 19,4 C 17,2 C 67 % 0 lf 1006,8 hPa 0,0 l/m 0 min 0 min 56 W/m 12,6 km/h (3 Bft) 100,00 %
03.04.2016 18:54 19,7 C 19,4 C 17,2 C 67 % 0 lf 1006,8 hPa 0,0 l/m 0 min 0 min 49 W/m 10,5 km/h (2 Bft) 97,87 %
03.04.2016 18:56 19,7 C 19,4 C 17,2 C 67 % 0 lf 1006,7 hPa 0,0 l/m 0 min 0 min 45 W/m 10,5 km/h (2 Bft) 100,00 %
03.04.2016 18:58 19,7 C 19,4 C 17,2 C 67 % 0 lf 1006,7 hPa 0,0 l/m 0 min 0 min 40 W/m 6,3 km/h (2 Bft) 100,00 %
03.04.2016 19:00 19,7 C 19,4 C 17,2 C 67 % 0 lf 1006,7 hPa 0,0 l/m 0 min 0 min 34 W/m 14,6 km/h (3 Bft) 100,00 %
03.04.2016 19:02 19,7 C 19,4 C 17,2 C 67 % 0 lf 1006,7 hPa 0,0 l/m 0 min 0 min 28 W/m 12,6 km/h (3 Bft) 100,00 %
03.04.2016 19:04 19,7 C 18,9 C 17,2 C 67 % 0 lf 1006,7 hPa 0,0 l/m 0 min 0 min 26 W/m 12,6 km/h (3 Bft) 100,00 %
03.04.2016 19:06 19,7 C 18,9 C 16,7 C 67 % 0 lf 1006,7 hPa 0,0 l/m 0 min 0 min 26 W/m 8,4 km/h (2 Bft) 100,00 %
03.04.2016 19:08 19,6 C 18,9 C 16,7 C 68 % 0 lf 1006,7 hPa 0,0 l/m 0 min 0 min 26 W/m 6,3 km/h (2 Bft) 100,00 %
03.04.2016 19:10 19,6 C 18,9 C 16,7 C 68 % 0 lf 1006,7 hPa 0,0 l/m 0 min 0 min 25 W/m 4,2 km/h (1 Bft) 97,87 %
03.04.2016 19:12 19,6 C 18,9 C 16,7 C 68 % 0 lf 1006,6 hPa 0,0 l/m 0 min 0 min 19 W/m 4,2 km/h (1 Bft) 97,87 %
03.04.2016 19:14 19,5 C 18,9 C 16,1 C 69 % 0 lf 1006,7 hPa 0,0 l/m 0 min 0 min 14 W/m 4,2 km/h (1 Bft) 97,87 %
03.04.2016 19:16 19,5 C 18,9 C 16,1 C 69 % 0 lf 1006,7 hPa 0,0 l/m 0 min 0 min 11 W/m 4,2 km/h (1 Bft) 95,65 %
03.04.2016 19:18 19,5 C 18,9 C 16,1 C 69 % 0 lf 1006,6 hPa 0,0 l/m 0 min 0 min 11 W/m 0,0 km/h (0 Bft) 100,00 %
03.04.2016 19:20 19,4 C 18,9 C 16,1 C 69 % 0 lf 1006,7 hPa 0,0 l/m 0 min 0 min 9 W/m 4,2 km/h (1 Bft) 100,00 %
03.04.2016 19:22 19,4 C 18,3 C 15,6 C 69 % 0 lf 1006,6 hPa 0,0 l/m 0 min 0 min 9 W/m 6,3 km/h (2 Bft) 100,00 %
03.04.2016 19:24 19,4 C 18,3 C 15,6 C 69 % 0 lf 1006,7 hPa 0,0 l/m 0 min 0 min 9 W/m 4,2 km/h (1 Bft) 95,74 %
03.04.2016 19:26 19,3 C 18,9 C 15,6 C 69 % 0 lf 1006,6 hPa 0,0 l/m 0 min 0 min 9 W/m 6,3 km/h (2 Bft) 100,00 %
03.04.2016 19:28 19,3 C 18,3 C 15,6 C 69 % 0 lf 1006,6 hPa 0,0 l/m 0 min 0 min 10 W/m 4,2 km/h (1 Bft) 100,00 %
03.04.2016 19:30 19,3 C 18,3 C 15,6 C 69 % 0 lf 1006,6 hPa 0,0 l/m 0 min 0 min 10 W/m 2,1 km/h (1 Bft) 100,00 %
03.04.2016 19:32 19,2 C 18,3 C 15,6 C 69 % 0 lf 1006,6 hPa 0,0 l/m 0 min 0 min 9 W/m 6,3 km/h (2 Bft) 93,62 %
03.04.2016 19:34 19,2 C 18,3 C 15,6 C 70 % 0 lf 1006,6 hPa 0,0 l/m 0 min 0 min 9 W/m 4,2 km/h (1 Bft) 100,00 %
03.04.2016 19:36 19,2 C 18,3 C 15,6 C 70 % 0 lf 1006,5 hPa 0,0 l/m 0 min 0 min 9 W/m 6,3 km/h (2 Bft) 97,87 %
03.04.2016 19:38 19,1 C 18,3 C 15,6 C 70 % 0 lf 1006,5 hPa 0,0 l/m 0 min 0 min 8 W/m 6,3 km/h (2 Bft) 100,00 %
03.04.2016 19:40 19,1 C 18,3 C 15,6 C 70 % 0 lf 1006,4 hPa 0,0 l/m 0 min 0 min 7 W/m 6,3 km/h (2 Bft) 97,83 %
03.04.2016 19:42 19,0 C 18,3 C 15,6 C 70 % 0 lf 1006,5 hPa 0,0 l/m 0 min 0 min 6 W/m 10,5 km/h (2 Bft) 100,00 %
03.04.2016 19:44 19,0 C 18,3 C 15,6 C 70 % 0 lf 1006,5 hPa 0,0 l/m 0 min 0 min 5 W/m 10,5 km/h (2 Bft) 97,87 %
03.04.2016 19:46 18,9 C 18,3 C 15,6 C 70 % 0 lf 1006,5 hPa 0,0 l/m 0 min 0 min 5 W/m 4,2 km/h (1 Bft) 97,87 %
03.04.2016 19:48 18,9 C 18,3 C 15,6 C 70 % 0 lf 1006,6 hPa 0,0 l/m 0 min 2 min 5 W/m 6,3 km/h (2 Bft) 95,74 %
03.04.2016 19:50 18,9 C 17,2 C 15,0 C 71 % 10 lf 1006,6 hPa 0,0 l/m 0 min 2 min 5 W/m 6,3 km/h (2 Bft) 97,87 %
03.04.2016 19:52 18,9 C 16,1 C 14,4 C 71 % 9 lf 1006,5 hPa 0,0 l/m 0 min 2 min 5 W/m 8,4 km/h (2 Bft) 97,83 %
03.04.2016 19:54 18,8 C 15,6 C 13,9 C 73 % 9 lf 1006,6 hPa 0,0 l/m 0 min 2 min 5 W/m 6,3 km/h (2 Bft) 97,87 %
03.04.2016 19:56 18,8 C 15,6 C 13,9 C 73 % 5 lf 1006,6 hPa 0,0 l/m 0 min 2 min 1 W/m 6,3 km/h (2 Bft) 100,00 %
03.04.2016 19:58 18,8 C 15,6 C 13,3 C 73 % 8 lf 1006,6 hPa 0,0 l/m 0 min 2 min 0 W/m 6,3 km/h (2 Bft) 93,62 %
03.04.2016 20:00 18,8 C 15,6 C 13,3 C 74 % 13 lf 1006,6 hPa 0,0 l/m 0 min 2 min 0 W/m 10,5 km/h (2 Bft) 95,65 %
03.04.2016 20:02 18,7 C 15,6 C 13,3 C 74 % 13 lf 1006,6 hPa 0,0 l/m 0 min 2 min 0 W/m 8,4 km/h (2 Bft) 95,74 %
03.04.2016 20:04 18,7 C 15,0 C 13,3 C 74 % 12 lf 1006,5 hPa 0,2 l/m 0 min 2 min 0 W/m 6,3 km/h (2 Bft) 95,74 %
03.04.2016 20:06 18,6 C 14,4 C 13,3 C 75 % 12 lf 1006,5 hPa 0,0 l/m 0 min 2 min 0 W/m 8,4 km/h (2 Bft) 95,74 %
03.04.2016 20:08 18,6 C 14,4 C 13,3 C 75 % 11 lf 1006,5 hPa 0,0 l/m 0 min 2 min 0 W/m 6,3 km/h (2 Bft) 93,62 %
03.04.2016 20:10 18,5 C 15,0 C 13,3 C 76 % 9 lf 1006,6 hPa 0,0 l/m 0 min 0 min 0 W/m 8,4 km/h (2 Bft) 95,74 %
03.04.2016 20:12 18,4 C 15,0 C 13,3 C 76 % 5 lf 1006,6 hPa 0,0 l/m 0 min 0 min 0 W/m 8,4 km/h (2 Bft) 93,48 %
03.04.2016 20:14 18,4 C 15,0 C 13,3 C 76 % 3 lf 1006,6 hPa 0,0 l/m 0 min 0 min 0 W/m 6,3 km/h (2 Bft) 95,74 %
03.04.2016 20:16 18,3 C 15,0 C 13,3 C 76 % 1 lf 1006,6 hPa 0,0 l/m 0 min 0 min 0 W/m 8,4 km/h (2 Bft) 93,62 %
03.04.2016 20:18 18,3 C 15,0 C 12,8 C 77 % 0 lf 1006,7 hPa 0,0 l/m 0 min 0 min 0 W/m 6,3 km/h (2 Bft) 93,62 %
03.04.2016 20:20 18,2 C 15,0 C 12,8 C 77 % 0 lf 1006,6 hPa 0,0 l/m 0 min 0 min 0 W/m 6,3 km/h (2 Bft) 95,74 %
03.04.2016 20:22 18,2 C 15,0 C 12,8 C 77 % 0 lf 1006,7 hPa 0,0 l/m 0 min 0 min 0 W/m 8,4 km/h (2 Bft) 91,49 %
03.04.2016 20:24 18,1 C 15,0 C 12,8 C 77 % 0 lf 1006,7 hPa 0,0 l/m 0 min 0 min 0 W/m 14,6 km/h (3 Bft) 86,96 %
03.04.2016 20:26 18,1 C 15,0 C 12,8 C 78 % 0 lf 1006,7 hPa 0,0 l/m 0 min 0 min 0 W/m 14,6 km/h (3 Bft) 93,62 %
03.04.2016 20:28 17,9 C 15,0 C 12,8 C 78 % 0 lf 1006,7 hPa 0,0 l/m 0 min 0 min 0 W/m 8,4 km/h (2 Bft) 93,62 %
03.04.2016 20:30 17,9 C 15,0 C 12,8 C 77 % 0 lf 1006,7 hPa 0,0 l/m 0 min 0 min 0 W/m 8,4 km/h (2 Bft) 93,62 %
03.04.2016 20:32 17,8 C 15,0 C 12,8 C 78 % 0 lf 1006,7 hPa 0,0 l/m 0 min 0 min 0 W/m 6,3 km/h (2 Bft) 95,74 %
03.04.2016 20:34 17,7 C 15,6 C 12,8 C 78 % 0 lf 1006,7 hPa 0,0 l/m 0 min 0 min 0 W/m 8,4 km/h (2 Bft) 91,49 %
03.04.2016 20:36 17,7 C 15,6 C 12,8 C 78 % 0 lf 1006,7 hPa 0,0 l/m 0 min 0 min 0 W/m 8,4 km/h (2 Bft) 89,13 %
03.04.2016 20:38 17,6 C 15,6 C 12,8 C 78 % 0 lf 1006,8 hPa 0,0 l/m 0 min 0 min 0 W/m 8,4 km/h (2 Bft) 93,62 %
03.04.2016 20:40 17,5 C 16,7 C 12,8 C 77 % 0 lf 1006,7 hPa 0,0 l/m 0 min 0 min 0 W/m 25,1 km/h (4 Bft) 93,62 %
03.04.2016 20:42 17,4 C 17,2 C 12,8 C 76 % 0 lf 1006,7 hPa 0,0 l/m 0 min 0 min 0 W/m 29,3 km/h (5 Bft) 89,36 %
03.04.2016 20:44 17,3 C 17,2 C 12,8 C 76 % 0 lf 1006,8 hPa 0,0 l/m 0 min 2 min 0 W/m 23,0 km/h (4 Bft) 97,87 %
03.04.2016 20:46 17,3 C 17,2 C 12,8 C 76 % 0 lf 1006,9 hPa 0,0 l/m 0 min 2 min 0 W/m 23,0 km/h (4 Bft) 95,74 %
03.04.2016 20:48 17,3 C 17,2 C 12,8 C 75 % 0 lf 1006,9 hPa 0,0 l/m 0 min 2 min 0 W/m 20,9 km/h (4 Bft) 95,65 %
03.04.2016 20:50 17,2 C 17,2 C 12,8 C 75 % 0 lf 1006,9 hPa 0,0 l/m 0 min 0 min 0 W/m 29,3 km/h (5 Bft) 93,62 %
03.04.2016 20:52 17,2 C 17,2 C 12,8 C 75 % 0 lf 1006,8 hPa 0,0 l/m 0 min 2 min 0 W/m 14,6 km/h (3 Bft) 95,74 %
03.04.2016 20:54 17,2 C 17,2 C 12,8 C 75 % 0 lf 1006,8 hPa 0,0 l/m 0 min 2 min 0 W/m 18,8 km/h (3 Bft) 97,87 %
03.04.2016 20:56 17,2 C 17,2 C 12,8 C 75 % 0 lf 1006,9 hPa 0,0 l/m 0 min 2 min 0 W/m 25,1 km/h (4 Bft) 91,49 %
03.04.2016 20:58 17,2 C 17,2 C 12,8 C 74 % 0 lf 1006,9 hPa 0,0 l/m 0 min 2 min 0 W/m 16,7 km/h (3 Bft) 93,62 %
03.04.2016 21:00 17,2 C 17,2 C 12,8 C 74 % 0 lf 1006,8 hPa 0,0 l/m 0 min 2 min 0 W/m 23,0 km/h (4 Bft) 95,65 %
03.04.2016 21:02 17,2 C 16,7 C 12,8 C 74 % 0 lf 1006,8 hPa 0,0 l/m 0 min 2 min 0 W/m 20,9 km/h (4 Bft) 91,49 %
03.04.2016 21:04 17,2 C 17,2 C 12,8 C 74 % 0 lf 1006,8 hPa 0,0 l/m 0 min 0 min 0 W/m 18,8 km/h (3 Bft) 93,62 %
03.04.2016 21:06 17,1 C 17,2 C 12,8 C 74 % 0 lf 1006,9 hPa 0,0 l/m 0 min 0 min 0 W/m 20,9 km/h (4 Bft) 95,74 %
03.04.2016 21:08 17,1 C 17,2 C 12,8 C 74 % 0 lf 1006,9 hPa 0,0 l/m 0 min 2 min 0 W/m 23,0 km/h (4 Bft) 95,74 %
03.04.2016 21:10 17,1 C 17,2 C 12,8 C 74 % 0 lf 1006,8 hPa 0,0 l/m 0 min 0 min 0 W/m 31,4 km/h (5 Bft) 95,65 %
03.04.2016 21:12 17,1 C 17,2 C 12,8 C 74 % 0 lf 1006,8 hPa 0,0 l/m 0 min 0 min 0 W/m 20,9 km/h (4 Bft) 95,74 %
03.04.2016 21:14 17,1 C 17,2 C 12,8 C 74 % 0 lf 1006,9 hPa 0,0 l/m 0 min 0 min 0 W/m 27,2 km/h (4 Bft) 91,49 %
03.04.2016 21:16 17,1 C 17,2 C 12,8 C 74 % 0 lf 1006,9 hPa 0,0 l/m 0 min 0 min 0 W/m 18,8 km/h (3 Bft) 91,49 %
03.04.2016 21:18 17,1 C 17,2 C 12,8 C 74 % 0 lf 1007,0 hPa 0,0 l/m 0 min 0 min 0 W/m 23,0 km/h (4 Bft) 89,36 %
03.04.2016 21:20 17,1 C 16,7 C 12,8 C 74 % 0 lf 1007,0 hPa 0,0 l/m 0 min 0 min 0 W/m 20,9 km/h (4 Bft) 95,74 %
03.04.2016 21:22 17,1 C 17,2 C 13,3 C 73 % 0 lf 1007,0 hPa 0,0 l/m 0 min 0 min 0 W/m 25,1 km/h (4 Bft) 95,65 %
03.04.2016 21:24 17,1 C 17,2 C 13,3 C 73 % 1 lf 1007,0 hPa 0,0 l/m 0 min 0 min 0 W/m 18,8 km/h (3 Bft) 95,74 %
03.04.2016 21:26 17,1 C 16,7 C 13,3 C 73 % 0 lf 1007,1 hPa 0,0 l/m 0 min 2 min 0 W/m 23,0 km/h (4 Bft) 100,00 %
03.04.2016 21:28 17,1 C 16,7 C 13,3 C 73 % 1 lf 1007,1 hPa 0,0 l/m 0 min 2 min 0 W/m 27,2 km/h (4 Bft) 100,00 %
03.04.2016 21:30 17,0 C 16,7 C 13,3 C 73 % 0 lf 1007,0 hPa 0,0 l/m 0 min 2 min 0 W/m 25,1 km/h (4 Bft) 93,62 %
03.04.2016 21:32 17,0 C 16,7 C 13,9 C 73 % 0 lf 1007,1 hPa 0,0 l/m 0 min 2 min 0 W/m 20,9 km/h (4 Bft) 100,00 %
03.04.2016 21:34 17,0 C 16,7 C 13,9 C 73 % 0 lf 1007,1 hPa 0,0 l/m 0 min 2 min 0 W/m 16,7 km/h (3 Bft) 100,00 %
03.04.2016 21:36 17,0 C 16,1 C 13,9 C 73 % 0 lf 1007,1 hPa 0,0 l/m 0 min 2 min 0 W/m 16,7 km/h (3 Bft) 100,00 %
03.04.2016 21:38 17,0 C 16,7 C 13,9 C 73 % 0 lf 1007,1 hPa 0,0 l/m 0 min 2 min 0 W/m 23,0 km/h (4 Bft) 93,62 %
03.04.2016 21:40 17,0 C 16,7 C 13,9 C 74 % 0 lf 1007,1 hPa 0,0 l/m 0 min 2 min 0 W/m 16,7 km/h (3 Bft) 100,00 %
03.04.2016 21:42 16,9 C 16,7 C 13,9 C 73 % 0 lf 1007,1 hPa 0,0 l/m 0 min 0 min 0 W/m 25,1 km/h (4 Bft) 97,87 %
03.04.2016 21:44 16,9 C 16,7 C 14,4 C 73 % 0 lf 1007,1 hPa 0,0 l/m 0 min 0 min 0 W/m 16,7 km/h (3 Bft) 100,00 %
03.04.2016 21:46 16,9 C 16,1 C 13,9 C 74 % 0 lf 1007,1 hPa 0,0 l/m 0 min 2 min 0 W/m 14,6 km/h (3 Bft) 95,65 %
03.04.2016 21:48 16,9 C 16,1 C 13,9 C 74 % 0 lf 1007,1 hPa 0,0 l/m 0 min 2 min 0 W/m 20,9 km/h (4 Bft) 93,62 %
03.04.2016 21:50 16,8 C 16,1 C 13,3 C 74 % 0 lf 1007,1 hPa 0,0 l/m 0 min 2 min 0 W/m 33,5 km/h (5 Bft) 100,00 %
03.04.2016 21:52 16,8 C 16,1 C 13,3 C 74 % 0 lf 1007,2 hPa 0,0 l/m 0 min 2 min 0 W/m 16,7 km/h (3 Bft) 95,74 %
03.04.2016 21:54 16,8 C 16,1 C 13,3 C 74 % 1 lf 1007,1 hPa 0,0 l/m 0 min 2 min 0 W/m 20,9 km/h (4 Bft) 100,00 %
03.04.2016 21:56 16,7 C 15,6 C 13,3 C 74 % 1 lf 1007,1 hPa 0,0 l/m 0 min 2 min 0 W/m 27,2 km/h (4 Bft) 100,00 %
03.04.2016 21:58 16,7 C 15,0 C 13,3 C 75 % 0 lf 1007,1 hPa 0,0 l/m 0 min 2 min 0 W/m 27,2 km/h (4 Bft) 95,65 %
03.04.2016 22:00 16,6 C 13,3 C 12,2 C 75 % 0 lf 1007,1 hPa 0,0 l/m 0 min 2 min 0 W/m 16,7 km/h (3 Bft) 100,00 %
03.04.2016 22:02 16,6 C 13,3 C 12,2 C 76 % 2 lf 1007,1 hPa 0,0 l/m 0 min 2 min 0 W/m 23,0 km/h (4 Bft) 97,87 %
03.04.2016 22:04 16,5 C 13,9 C 12,2 C 76 % 0 lf 1007,1 hPa 0,2 l/m 0 min 2 min 0 W/m 23,0 km/h (4 Bft) 95,74 %
03.04.2016 22:06 16,4 C 13,9 C 12,2 C 76 % 0 lf 1007,2 hPa 0,0 l/m 0 min 2 min 0 W/m 25,1 km/h (4 Bft) 97,87 %
03.04.2016 22:08 16,4 C 13,9 C 12,2 C 77 % 0 lf 1007,2 hPa 0,0 l/m 0 min 2 min 0 W/m 27,2 km/h (4 Bft) 95,74 %
03.04.2016 22:10 16,3 C 14,4 C 12,2 C 77 % 0 lf 1007,2 hPa 0,0 l/m 0 min 2 min 0 W/m 16,7 km/h (3 Bft) 97,83 %
03.04.2016 22:12 16,2 C 14,4 C 12,2 C 77 % 0 lf 1007,2 hPa 0,0 l/m 0 min 2 min 0 W/m 16,7 km/h (3 Bft) 95,74 %
03.04.2016 22:14 16,2 C 14,4 C 12,2 C 78 % 0 lf 1007,2 hPa 0,0 l/m 0 min 2 min 0 W/m 14,6 km/h (3 Bft) 97,87 %
03.04.2016 22:16 16,1 C 14,4 C 12,2 C 78 % 0 lf 1007,2 hPa 0,0 l/m 0 min 2 min 0 W/m 16,7 km/h (3 Bft) 93,62 %
03.04.2016 22:18 16,1 C 15,0 C 12,2 C 78 % 0 lf 1007,2 hPa 0,0 l/m 0 min 2 min 0 W/m 14,6 km/h (3 Bft) 97,87 %
03.04.2016 22:20 16,1 C 15,0 C 12,2 C 78 % 0 lf 1007,2 hPa 0,0 l/m 0 min 2 min 0 W/m 18,8 km/h (3 Bft) 97,87 %
03.04.2016 22:22 16,0 C 14,4 C 12,2 C 79 % 1 lf 1007,2 hPa 0,0 l/m 0 min 2 min 0 W/m 16,7 km/h (3 Bft) 95,65 %
03.04.2016 22:24 15,9 C 14,4 C 11,7 C 79 % 0 lf 1007,2 hPa 0,0 l/m 0 min 2 min 0 W/m 12,6 km/h (3 Bft) 97,87 %
03.04.2016 22:26 15,9 C 14,4 C 11,7 C 79 % 0 lf 1007,2 hPa 0,0 l/m 0 min 2 min 0 W/m 10,5 km/h (2 Bft) 97,87 %
03.04.2016 22:28 15,8 C 14,4 C 12,2 C 79 % 0 lf 1007,2 hPa 0,0 l/m 0 min 2 min 0 W/m 12,6 km/h (3 Bft) 97,87 %
03.04.2016 22:30 15,8 C 14,4 C 12,2 C 80 % 0 lf 1007,2 hPa 0,0 l/m 0 min 2 min 0 W/m 12,6 km/h (3 Bft) 95,74 %
03.04.2016 22:32 15,7 C 14,4 C 12,2 C 80 % 0 lf 1007,2 hPa 0,0 l/m 0 min 0 min 0 W/m 10,5 km/h (2 Bft) 100,00 %
03.04.2016 22:34 15,7 C 14,4 C 12,2 C 80 % 0 lf 1007,2 hPa 0,0 l/m 0 min 0 min 0 W/m 12,6 km/h (3 Bft) 100,00 %
03.04.2016 22:36 15,6 C 15,0 C 12,2 C 80 % 0 lf 1007,2 hPa 0,0 l/m 0 min 0 min 0 W/m 12,6 km/h (3 Bft) 100,00 %
03.04.2016 22:38 15,6 C 15,0 C 12,2 C 81 % 1 lf 1007,1 hPa 0,0 l/m 0 min 2 min 0 W/m 16,7 km/h (3 Bft) 100,00 %
03.04.2016 22:40 15,6 C 15,0 C 12,2 C 81 % 0 lf 1007,1 hPa 0,0 l/m 0 min 2 min 0 W/m 12,6 km/h (3 Bft) 95,74 %
03.04.2016 22:42 15,5 C 15,0 C 12,2 C 81 % 0 lf 1007,1 hPa 0,0 l/m 0 min 0 min 0 W/m 12,6 km/h (3 Bft) 100,00 %
03.04.2016 22:44 15,5 C 15,0 C 12,2 C 81 % 0 lf 1007,1 hPa 0,0 l/m 0 min 0 min 0 W/m 12,6 km/h (3 Bft) 100,00 %
03.04.2016 22:46 15,4 C 15,0 C 12,2 C 81 % 0 lf 1007,1 hPa 0,0 l/m 0 min 2 min 0 W/m 12,6 km/h (3 Bft) 95,74 %
03.04.2016 22:48 15,4 C 15,0 C 12,2 C 81 % 0 lf 1007,0 hPa 0,0 l/m 0 min 2 min 0 W/m 12,6 km/h (3 Bft) 97,87 %
03.04.2016 22:50 15,4 C 15,0 C 12,8 C 81 % 0 lf 1007,0 hPa 0,0 l/m 0 min 2 min 0 W/m 12,6 km/h (3 Bft) 97,87 %
03.04.2016 22:52 15,3 C 15,0 C 12,8 C 82 % 0 lf 1007,0 hPa 0,0 l/m 0 min 0 min 0 W/m 12,6 km/h (3 Bft) 97,87 %
03.04.2016 22:54 15,3 C 15,0 C 12,8 C 82 % 0 lf 1007,0 hPa 0,0 l/m 0 min 0 min 0 W/m 12,6 km/h (3 Bft) 97,87 %
03.04.2016 22:56 15,3 C 15,0 C 12,8 C 82 % 0 lf 1006,9 hPa 0,0 l/m 0 min 2 min 0 W/m 16,7 km/h (3 Bft) 95,65 %
03.04.2016 22:58 15,3 C 15,0 C 13,3 C 82 % 0 lf 1006,9 hPa 0,0 l/m 0 min 2 min 0 W/m 12,6 km/h (3 Bft) 93,62 %
03.04.2016 23:00 15,2 C 15,0 C 13,3 C 82 % 1 lf 1007,0 hPa 0,0 l/m 0 min 2 min 0 W/m 14,6 km/h (3 Bft) 95,74 %
03.04.2016 23:02 15,2 C 15,0 C 13,3 C 82 % 0 lf 1007,0 hPa 0,0 l/m 0 min 2 min 0 W/m 18,8 km/h (3 Bft) 97,87 %
03.04.2016 23:04 15,2 C 15,0 C 13,3 C 82 % 0 lf 1007,0 hPa 0,0 l/m 0 min 2 min 0 W/m 14,6 km/h (3 Bft) 95,74 %
03.04.2016 23:06 15,2 C 15,0 C 12,8 C 82 % 0 lf 1007,1 hPa 0,0 l/m 0 min 2 min 0 W/m 14,6 km/h (3 Bft) 97,87 %
03.04.2016 23:08 15,2 C 15,0 C 12,8 C 83 % 0 lf 1007,1 hPa 0,0 l/m 0 min 2 min 0 W/m 20,9 km/h (4 Bft) 97,83 %
03.04.2016 23:10 15,2 C 15,0 C 12,8 C 83 % 0 lf 1007,0 hPa 0,0 l/m 0 min 2 min 0 W/m 23,0 km/h (4 Bft) 93,62 %
03.04.2016 23:12 15,2 C 15,0 C 12,8 C 83 % 0 lf 1007,1 hPa 0,0 l/m 0 min 2 min 0 W/m 31,4 km/h (5 Bft) 95,74 %
03.04.2016 23:14 15,2 C 15,0 C 12,8 C 83 % 0 lf 1007,0 hPa 0,0 l/m 0 min 2 min 0 W/m 18,8 km/h (3 Bft) 95,74 %
03.04.2016 23:16 15,2 C 15,0 C 12,8 C 83 % 0 lf 1007,0 hPa 0,0 l/m 0 min 0 min 0 W/m 20,9 km/h (4 Bft) 95,74 %
03.04.2016 23:18 15,2 C 15,0 C 12,8 C 83 % 0 lf 1007,0 hPa 0,0 l/m 0 min 2 min 0 W/m 20,9 km/h (4 Bft) 97,87 %
03.04.2016 23:20 15,1 C 15,0 C 12,8 C 83 % 0 lf 1007,0 hPa 0,0 l/m 0 min 0 min 0 W/m 25,1 km/h (4 Bft) 97,83 %
03.04.2016 23:22 15,1 C 15,0 C 12,8 C 83 % 0 lf 1007,0 hPa 0,0 l/m 0 min 0 min 0 W/m 18,8 km/h (3 Bft) 95,74 %
03.04.2016 23:24 15,1 C 15,0 C 12,8 C 83 % 0 lf 1007,0 hPa 0,0 l/m 0 min 0 min 0 W/m 27,2 km/h (4 Bft) 97,87 %
03.04.2016 23:26 15,1 C 15,0 C 13,3 C 83 % 0 lf 1007,0 hPa 0,0 l/m 0 min 0 min 0 W/m 18,8 km/h (3 Bft) 97,87 %
03.04.2016 23:28 15,1 C 15,0 C 13,3 C 84 % 0 lf 1006,9 hPa 0,0 l/m 0 min 0 min 0 W/m 20,9 km/h (4 Bft) 95,74 %
03.04.2016 23:30 15,1 C 15,0 C 13,3 C 84 % 0 lf 1006,8 hPa 0,0 l/m 0 min 0 min 0 W/m 23,0 km/h (4 Bft) 91,30 %
03.04.2016 23:32 15,0 C 15,0 C 13,3 C 84 % 0 lf 1006,8 hPa 0,0 l/m 0 min 0 min 0 W/m 18,8 km/h (3 Bft) 93,62 %
03.04.2016 23:34 15,0 C 15,0 C 13,3 C 84 % 0 lf 1006,9 hPa 0,0 l/m 0 min 0 min 0 W/m 16,7 km/h (3 Bft) 100,00 %
03.04.2016 23:36 15,0 C 15,0 C 13,3 C 84 % 0 lf 1006,9 hPa 0,0 l/m 0 min 0 min 0 W/m 18,8 km/h (3 Bft) 97,87 %
03.04.2016 23:38 14,9 C 15,0 C 13,3 C 84 % 0 lf 1006,8 hPa 0,0 l/m 0 min 0 min 0 W/m 20,9 km/h (4 Bft) 95,74 %
03.04.2016 23:40 14,9 C 15,0 C 13,3 C 84 % 0 lf 1006,8 hPa 0,0 l/m 0 min 0 min 0 W/m 18,8 km/h (3 Bft) 95,74 %
03.04.2016 23:42 14,9 C 15,0 C 13,3 C 84 % 0 lf 1006,8 hPa 0,0 l/m 0 min 0 min 0 W/m 25,1 km/h (4 Bft) 97,87 %
03.04.2016 23:44 14,9 C 15,0 C 13,3 C 84 % 0 lf 1006,8 hPa 0,0 l/m 0 min 0 min 0 W/m 23,0 km/h (4 Bft) 95,65 %
03.04.2016 23:46 14,9 C 15,0 C 13,3 C 84 % 0 lf 1006,7 hPa 0,0 l/m 0 min 0 min 0 W/m 25,1 km/h (4 Bft) 97,87 %
03.04.2016 23:48 14,9 C 15,0 C 13,3 C 84 % 0 lf 1006,7 hPa 0,0 l/m 0 min 0 min 0 W/m 12,6 km/h (3 Bft) 93,62 %
03.04.2016 23:50 14,9 C 15,0 C 13,3 C 84 % 0 lf 1006,6 hPa 0,0 l/m 0 min 0 min 0 W/m 25,1 km/h (4 Bft) 93,62 %
03.04.2016 23:52 14,9 C 15,0 C 13,3 C 84 % 0 lf 1006,6 hPa 0,0 l/m 0 min 0 min 0 W/m 16,7 km/h (3 Bft) 97,87 %
03.04.2016 23:54 14,9 C 15,0 C 13,3 C 84 % 0 lf 1006,6 hPa 0,0 l/m 0 min 0 min 0 W/m 16,7 km/h (3 Bft) 95,65 %
03.04.2016 23:56 14,8 C 15,0 C 13,3 C 84 % 0 lf 1006,6 hPa 0,0 l/m 0 min 0 min 0 W/m 14,6 km/h (3 Bft) 95,74 %
03.04.2016 23:58 14,8 C 15,0 C 13,3 C 84 % 0 lf 1006,7 hPa 0,0 l/m 0 min 0 min 0 W/m 16,7 km/h (3 Bft) 95,74 %
_ Min-Zeit 08:08 07:36 07:44 16:40 00:00 19:40 - - - - 19:18 08:22
Minimum _ 11,4 C 10,6 C 8,9 C 63 % 0 lf 1006,4 hPa - - - - 0,0 km/h (0 Bft) 75,00 %
_ Max-Zeit 16:40 15:12 12:20 10:14 20:00 00:06 07:44 11:14 00:16 15:12 21:50 00:32
Maximum _ 21,0 C 27,2 C 22,8 C 93 % 13 lf 1011,9 hPa 0,2 l/m 2 min 2 min 777 W/m 33,5 km/h
S (5 Bft)
100,00 %
Durchschnitt _ 15,4 C 16,1 C 13,7 C 79 % 0 lf 1009,3 hPa #1,0 l/m #4:58 h #7:07 h 254 W/m 12,8 km/h (3 Bft) 96,20 %
© 2016 W. Hausmann